IZ1UQG-2 Weather Reports


Display with metric or nautical units.
time (UTC)temp
F
wind
direction
speed
MPH
gust
MPH
rain 1hr
in
rain 24hr
in
rain mn
in
humidity
%
barometer
mb
20260509122904 73 69 5.0 10.0 0.00 0.00 0.00 41 1013.0
20260509122803 73 74 6.0 10.0 0.00 0.00 0.00 41 1013.0
20260509122604 72 79 6.0 10.0 0.00 0.00 0.00 41 1013.1
20260509122504 72 79 6.0 10.0 0.00 0.00 0.00 42 1013.1
20260509122404 72 81 6.0 10.0 0.00 0.00 0.00 41 1013.1
20260509122306 72 81 6.0 10.0 0.00 0.00 0.00 41 1013.1
20260509122204 72 83 6.0 10.0 0.00 0.00 0.00 40 1013.2
20260509122113 72 83 6.0 10.0 0.00 0.00 0.00 41 1013.2
20260509122004 72 82 6.0 10.0 0.00 0.00 0.00 41 1013.1
20260509121804 72 81 5.0 9.0 0.00 0.00 0.00 41 1013.2
20260509121704 72 81 5.0 9.0 0.00 0.00 0.00 40 1013.3
20260509121604 72 83 5.0 9.0 0.00 0.00 0.00 40 1013.3
20260509121504 72 84 5.0 8.0 0.00 0.00 0.00 40 1013.2
20260509121404 72 85 5.0 8.0 0.00 0.00 0.00 41 1013.2
20260509121304 72 86 5.0 8.0 0.00 0.00 0.00 41 1013.3
20260509121106 72 88 5.0 8.0 0.00 0.00 0.00 40 1013.3
20260509121004 72 89 5.0 8.0 0.00 0.00 0.00 40 1013.2
20260509120904 72 88 4.0 8.0 0.00 0.00 0.00 40 1013.2
20260509120815 72 88 4.0 8.0 0.00 0.00 0.00 40 1013.2
20260509120704 72 89 4.0 8.0 0.00 0.00 0.00 40 1013.3
20260509120604 72 88 4.0 8.0 0.00 0.00 0.00 40 1013.2
20260509120504 73 88 4.0 8.0 0.00 0.00 0.00 39 1013.3
20260509120404 73 86 3.0 8.0 0.00 0.00 0.00 40 1013.2
20260509120304 73 82 3.0 8.0 0.00 0.00 0.00 40 1013.2
20260509120204 73 82 3.0 8.0 0.00 0.00 0.00 40 1013.3
20260509120004 73 75 3.0 8.0 0.00 0.00 0.00 40 1013.3
20260509115904 73 72 3.0 8.0 0.00 0.00 0.00 40 1013.3
20260509115814 73 69 3.0 8.0 0.00 0.00 0.00 40 1013.3
20260509115704 73 65 3.0 8.0 0.00 0.00 0.00 40 1013.3
20260509115604 73 64 3.0 8.0 0.00 0.00 0.00 40 1013.3
20260509115504 72 65 4.0 8.0 0.00 0.00 0.00 40 1013.3
20260509115404 72 66 4.0 8.0 0.00 0.00 0.00 41 1013.4
20260509115307 72 69 4.0 9.0 0.00 0.00 0.00 41 1013.4
20260509115204 72 70 5.0 9.0 0.00 0.00 0.00 41 1013.4
20260509115106 71 70 5.0 9.0 0.00 0.00 0.00 41 1013.4
20260509115005 71 71 5.0 9.0 0.00 0.00 0.00 42 1013.4
20260509114905 71 72 5.0 9.0 0.00 0.00 0.00 42 1013.4
20260509114704 71 75 5.0 9.0 0.00 0.00 0.00 41 1013.4
20260509114604 71 73 5.0 9.0 0.00 0.00 0.00 42 1013.4
20260509114504 71 73 5.0 9.0 0.00 0.00 0.00 42 1013.5
20260509114304 71 70 5.0 9.0 0.00 0.00 0.00 42 1013.4
20260509114204 71 69 5.0 9.0 0.00 0.00 0.00 43 1013.5
20260509114105 71 72 5.0 9.0 0.00 0.00 0.00 43 1013.5
20260509114004 71 74 5.0 9.0 0.00 0.00 0.00 43 1013.6
20260509113903 71 77 5.0 9.0 0.00 0.00 0.00 43 1013.6
20260509113814 71 80 5.0 9.0 0.00 0.00 0.00 42 1013.6
20260509113604 71 79 5.0 10.0 0.00 0.00 0.00 41 1013.6
20260509113404 72 79 5.0 10.0 0.00 0.00 0.00 43 1013.6
20260509113305 72 80 5.0 10.0 0.00 0.00 0.00 44 1013.7
20260509113204 72 78 5.0 10.0 0.00 0.00 0.00 44 1013.7
20260509113104 72 75 5.0 11.0 0.00 0.00 0.00 44 1013.7
20260509113004 71 76 5.0 11.0 0.00 0.00 0.00 45 1013.8
20260509112903 71 76 5.0 11.0 0.00 0.00 0.00 44 1013.7
20260509112705 71 77 5.0 11.0 0.00 0.00 0.00 45 1013.7
20260509112604 71 77 5.0 11.0 0.00 0.00 0.00 44 1013.7
20260509112504 72 78 4.0 11.0 0.00 0.00 0.00 43 1013.7
20260509112404 72 81 4.0 11.0 0.00 0.00 0.00 44 1013.7
20260509112306 72 84 4.0 11.0 0.00 0.00 0.00 44 1013.7
20260509112204 72 85 5.0 11.0 0.00 0.00 0.00 44 1013.8
20260509112103 72 87 5.0 11.0 0.00 0.00 0.00 44 1013.8
20260509112004 72 88 5.0 11.0 0.00 0.00 0.00 45 1014.0
20260509111904 72 86 5.0 11.0 0.00 0.00 0.00 45 1013.8
20260509111812 72 82 4.0 11.0 0.00 0.00 0.00 45 1013.9
20260509111704 72 82 4.0 11.0 0.00 0.00 0.00 46 1013.8
20260509111504 71 86 5.0 11.0 0.00 0.00 0.00 46 1014.0
20260509111304 71 88 5.0 11.0 0.00 0.00 0.00 45 1014.0
20260509111204 71 87 4.0 10.0 0.00 0.00 0.00 46 1013.9
20260509111104 71 85 5.0 9.0 0.00 0.00 0.00 47 1014.0
20260509111004 71 84 5.0 9.0 0.00 0.00 0.00 48 1014.0
20260509110904 71 84 5.0 10.0 0.00 0.00 0.00 48 1014.1
20260509110604 71 88 5.0 11.0 0.00 0.00 0.00 47 1014.1
20260509110405 70 82 5.0 11.0 0.00 0.00 0.00 49 1014.2
20260509110304 70 84 5.0 11.0 0.00 0.00 0.00 48 1014.3
20260509110204 70 86 5.0 11.0 0.00 0.00 0.00 48 1014.2
20260509110104 70 86 5.0 11.0 0.00 0.00 0.00 49 1014.3
20260509110004 70 87 5.0 11.0 0.00 0.00 0.00 48 1014.2
20260509105904 71 88 5.0 11.0 0.00 0.00 0.00 47 1014.2
20260509105704 71 92 5.0 10.0 0.00 0.00 0.00 48 1014.3
20260509105604 71 95 5.0 10.0 0.00 0.00 0.00 48 1014.2
20260509105515 71 96 5.0 10.0 0.00 0.00 0.00 48 1014.2
20260509105403 70 97 5.0 10.0 0.00 0.00 0.00 48 1014.4
20260509105306 70 100 5.0 10.0 0.00 0.00 0.00 48 1014.3
20260509105204 71 101 5.0 10.0 0.00 0.00 0.00 48 1014.3
20260509105104 71 104 5.0 10.0 0.00 0.00 0.00 48 1014.4
20260509105004 71 103 5.0 10.0 0.00 0.00 0.00 48 1014.4
20260509104904 71 100 5.0 10.0 0.00 0.00 0.00 47 1014.3
20260509104806 71 95 4.0 9.0 0.00 0.00 0.00 48 1014.4
20260509104704 71 95 4.0 8.0 0.00 0.00 0.00 48 1014.5
20260509104604 70 92 4.0 8.0 0.00 0.00 0.00 49 1014.5
20260509104404 70 90 5.0 10.0 0.00 0.00 0.00 48 1014.5
20260509104203 70 86 5.0 11.0 0.00 0.00 0.00 49 1014.4
20260509104108 70 88 5.0 11.0 0.00 0.00 0.00 49 1014.5
20260509104004 70 90 5.0 11.0 0.00 0.00 0.00 49 1014.5
20260509103804 70 90 6.0 11.0 0.00 0.00 0.00 49 1014.6
20260509103704 69 90 6.0 11.0 0.00 0.00 0.00 50 1014.6
20260509103604 69 90 6.0 11.0 0.00 0.00 0.00 49 1014.6
20260509103504 69 89 6.0 11.0 0.00 0.00 0.00 49 1014.6
20260509103404 69 89 6.0 11.0 0.00 0.00 0.00 49 1014.7
20260509103104 69 81 4.0 10.0 0.00 0.00 0.00 51 1014.7
20260509103004 69 81 4.0 10.0 0.00 0.00 0.00 51 1014.7
20260509102904 69 81 4.0 10.0 0.00 0.00 0.00 51 1014.7
20260509102804 69 80 4.0 10.0 0.00 0.00 0.00 51 1014.8
20260509102604 70 79 3.0 9.0 0.00 0.00 0.00 50 1014.7
20260509102504 70 79 3.0 9.0 0.00 0.00 0.00 52 1014.8
20260509102404 69 85 3.0 9.0 0.00 0.00 0.00 52 1014.8
20260509102306 69 87 3.0 9.0 0.00 0.00 0.00 53 1014.9
20260509102205 69 90 4.0 9.0 0.00 0.00 0.00 52 1014.9
20260509102103 69 90 4.0 9.0 0.00 0.00 0.00 52 1014.9
20260509102004 69 87 5.0 9.0 0.00 0.00 0.00 51 1014.9
20260509101913 69 88 5.0 9.0 0.00 0.00 0.00 51 1014.8
20260509101804 69 90 4.0 9.0 0.00 0.00 0.00 52 1015.0
20260509101704 69 87 4.0 9.0 0.00 0.00 0.00 52 1014.9
20260509101603 69 88 4.0 9.0 0.00 0.00 0.00 52 1014.9
20260509101504 69 88 5.0 9.0 0.00 0.00 0.00 52 1014.9
20260509101404 69 85 5.0 9.0 0.00 0.00 0.00 52 1015.0
20260509101304 68 84 5.0 9.0 0.00 0.00 0.00 52 1015.0
20260509101204 68 82 5.0 9.0 0.00 0.00 0.00 51 1014.9
20260509101104 69 82 4.0 9.0 0.00 0.00 0.00 51 1014.9
20260509101005 69 83 4.0 9.0 0.00 0.00 0.00 51 1014.9
20260509100913 69 87 3.0 9.0 0.00 0.00 0.00 52 1014.9
20260509100803 69 89 3.0 9.0 0.00 0.00 0.00 52 1014.9
20260509100704 69 90 3.0 9.0 0.00 0.00 0.00 52 1014.9
20260509100604 69 89 3.0 9.0 0.00 0.00 0.00 51 1014.9
20260509100504 69 90 3.0 8.0 0.00 0.00 0.00 49 1014.8
20260509100404 69 91 2.0 7.0 0.00 0.00 0.00 50 1014.8
20260509100204 70 95 2.0 9.0 0.00 0.00 0.00 51 1014.9
20260509100104 70 95 3.0 9.0 0.00 0.00 0.00 50 1014.9
20260509100005 69 93 3.0 9.0 0.00 0.00 0.00 50 1014.9
20260509095907 69 91 3.0 9.0 0.00 0.00 0.00 50 1014.8
20260509095704 69 96 3.0 9.0 0.00 0.00 0.00 51 1014.9
20260509095504 69 99 3.0 9.0 0.00 0.00 0.00 51 1014.9
20260509095404 69 98 3.0 9.0 0.00 0.00 0.00 51 1015.0
20260509095306 69 101 3.0 9.0 0.00 0.00 0.00 51 1014.9
20260509095204 69 102 3.0 7.0 0.00 0.00 0.00 51 1014.9
20260509095004 69 105 3.0 7.0 0.00 0.00 0.00 51 1015.0
20260509094804 69 102 3.0 8.0 0.00 0.00 0.00 50 1015.0
20260509094704 69 99 3.0 8.0 0.00 0.00 0.00 50 1015.0
20260509094613 69 100 3.0 8.0 0.00 0.00 0.00 50 1015.0
20260509094504 69 92 3.0 8.0 0.00 0.00 0.00 50 1015.0
20260509094404 69 92 3.0 8.0 0.00 0.00 0.00 51 1015.0
20260509094304 69 92 3.0 8.0 0.00 0.00 0.00 51 1014.9
20260509094204 69 92 4.0 8.0 0.00 0.00 0.00 51 1015.0
20260509094004 68 94 4.0 8.0 0.00 0.00 0.00 51 1015.0
20260509093905 68 96 4.0 8.0 0.00 0.00 0.00 52 1015.1
20260509093704 67 93 4.0 8.0 0.00 0.00 0.00 51 1015.0
20260509093612 68 90 4.0 8.0 0.00 0.00 0.00 51 1015.0
20260509093504 68 91 4.0 8.0 0.00 0.00 0.00 51 1015.0
20260509093404 68 90 4.0 8.0 0.00 0.00 0.00 51 1015.0
20260509093304 68 92 4.0 8.0 0.00 0.00 0.00 52 1015.1
20260509093204 67 91 4.0 8.0 0.00 0.00 0.00 51 1015.2
20260509093104 67 91 4.0 8.0 0.00 0.00 0.00 52 1015.1
20260509093004 67 91 4.0 8.0 0.00 0.00 0.00 52 1015.3
20260509092904 67 90 4.0 9.0 0.00 0.00 0.00 52 1015.2
20260509092611 67 95 4.0 9.0 0.00 0.00 0.00 52 1015.1
20260509092504 67 97 3.0 9.0 0.00 0.00 0.00 52 1015.1
20260509092404 67 101 3.0 9.0 0.00 0.00 0.00 51 1015.1
20260509092204 67 99 3.0 9.0 0.00 0.00 0.00 51 1015.2
20260509092104 67 96 3.0 9.0 0.00 0.00 0.00 52 1015.3
20260509092005 67 92 3.0 9.0 0.00 0.00 0.00 52 1015.1
20260509091804 68 93 2.0 7.0 0.00 0.00 0.00 52 1015.2
20260509091703 68 101 2.0 7.0 0.00 0.00 0.00 53 1015.2
20260509091504 67 97 2.0 7.0 0.00 0.00 0.00 54 1015.2
20260509091404 67 93 3.0 7.0 0.00 0.00 0.00 54 1015.3
20260509091304 67 90 2.0 7.0 0.00 0.00 0.00 54 1015.4
20260509091204 67 90 3.0 7.0 0.00 0.00 0.00 55 1015.3
20260509091104 67 89 3.0 6.0 0.00 0.00 0.00 56 1015.3
20260509090904 67 85 3.0 6.0 0.00 0.00 0.00 56 1015.4
20260509090703 66 77 3.0 6.0 0.00 0.00 0.00 57 1015.4
20260509090610 66 75 3.0 7.0 0.00 0.00 0.00 57 1015.5
20260509090504 66 78 3.0 7.0 0.00 0.00 0.00 56 1015.4
20260509090404 66 78 3.0 7.0 0.00 0.00 0.00 57 1015.5
20260509090304 66 74 3.0 7.0 0.00 0.00 0.00 57 1015.5
20260509090204 66 75 3.0 7.0 0.00 0.00 0.00 56 1015.3
20260509090104 67 79 3.0 7.0 0.00 0.00 0.00 56 1015.4
20260509090005 67 85 3.0 7.0 0.00 0.00 0.00 56 1015.4
20260509085804 67 90 3.0 7.0 0.00 0.00 0.00 57 1015.3
20260509085611 67 92 3.0 7.0 0.00 0.00 0.00 56 1015.4
20260509085504 67 91 2.0 6.0 0.00 0.00 0.00 57 1015.4
20260509085403 67 93 2.0 6.0 0.00 0.00 0.00 59 1015.4
20260509085306 66 97 2.0 6.0 0.00 0.00 0.00 58 1015.5
20260509085104 66 95 2.0 6.0 0.00 0.00 0.00 57 1015.5
20260509084904 66 96 2.0 6.0 0.00 0.00 0.00 59 1015.4
20260509084805 66 94 2.0 6.0 0.00 0.00 0.00 60 1015.5
20260509084704 65 96 2.0 6.0 0.00 0.00 0.00 60 1015.5
20260509084612 65 98 1.0 4.0 0.00 0.00 0.00 60 1015.5
20260509084504 65 100 1.0 4.0 0.00 0.00 0.00 58 1015.5
20260509084404 66 105 1.0 4.0 0.00 0.00 0.00 58 1015.5
20260509084303 66 112 1.0 4.0 0.00 0.00 0.00 58 1015.5
20260509084204 66 105 1.0 3.0 0.00 0.00 0.00 58 1015.5
20260509084104 66 89 1.0 3.0 0.00 0.00 0.00 57 1015.5
20260509084004 66 297 1.0 2.0 0.00 0.00 0.00 57 1015.5
20260509083904 66 199 1.0 3.0 0.00 0.00 0.00 57 1015.6
20260509083804 66 167 1.0 3.0 0.00 0.00 0.00 57 1015.6
20260509083704 66 171 1.0 3.0 0.00 0.00 0.00 57 1015.6
20260509083505 66 156 1.0 3.0 0.00 0.00 0.00 57 1015.6
20260509083404 66 138 1.0 3.0 0.00 0.00 0.00 58 1015.6
20260509083304 66 126 1.0 3.0 0.00 0.00 0.00 58 1015.6
20260509083204 66 134 1.0 4.0 0.00 0.00 0.00 59 1015.5
20260509083104 65 132 2.0 5.0 0.00 0.00 0.00 58 1015.6
20260509083004 66 119 2.0 5.0 0.00 0.00 0.00 59 1015.5
20260509082804 66 99 2.0 5.0 0.00 0.00 0.00 59 1015.6
20260509082704 66 99 1.0 5.0 0.00 0.00 0.00 59 1015.6
20260509082611 66 100 1.0 5.0 0.00 0.00 0.00 60 1015.7
20260509082504 65 104 1.0 5.0 0.00 0.00 0.00 61 1015.7
20260509082405 65 104 1.0 5.0 0.00 0.00 0.00 60 1015.8
20260509082306 65 94 1.0 5.0 0.00 0.00 0.00 60 1015.7
20260509082204 65 82 1.0 5.0 0.00 0.00 0.00 60 1015.7
20260509082104 65 56 1.0 4.0 0.00 0.00 0.00 60 1015.7
20260509082004 65 27 1.0 3.0 0.00 0.00 0.00 61 1015.8
20260509081904 65 357 1.0 4.0 0.00 0.00 0.00 61 1015.9
20260509081804 64 350 1.0 4.0 0.00 0.00 0.00 61 1015.7
20260509081704 64 358 1.0 4.0 0.00 0.00 0.00 62 1015.8
20260509081610 64 3 1.0 4.0 0.00 0.00 0.00 61 1015.7
20260509081404 64 11 1.0 4.0 0.00 0.00 0.00 60 1015.9
20260509081104 64 35 1.0 4.0 0.00 0.00 0.00 61 1015.8
20260509081005 64 40 1.0 4.0 0.00 0.00 0.00 62 1015.9
20260509080903 64 55 1.0 3.0 0.00 0.00 0.00 62 1015.9
20260509080804 64 66 1.0 3.0 0.00 0.00 0.00 63 1015.9
20260509080704 63 69 1.0 4.0 0.00 0.00 0.00 63 1015.9
20260509080611 63 75 1.0 4.0 0.00 0.00 0.00 63 1015.9
20260509080404 63 66 2.0 4.0 0.00 0.00 0.00 63 1016.0
20260509080303 63 62 2.0 4.0 0.00 0.00 0.00 62 1016.0
20260509080204 63 64 2.0 4.0 0.00 0.00 0.00 62 1016.0
20260509080104 63 67 2.0 4.0 0.00 0.00 0.00 63 1016.0
20260509080005 63 69 2.0 4.0 0.00 0.00 0.00 63 1015.9
20260509075904 63 67 2.0 4.0 0.00 0.00 0.00 63 1016.0
20260509075804 63 62 2.0 4.0 0.00 0.00 0.00 63 1015.9
20260509075613 63 59 2.0 5.0 0.00 0.00 0.00 64 1016.1
20260509075504 62 56 2.0 5.0 0.00 0.00 0.00 65 1016.1
20260509075404 62 53 2.0 5.0 0.00 0.00 0.00 65 1016.1
20260509075306 62 47 3.0 5.0 0.00 0.00 0.00 65 1016.0
20260509075205 62 36 3.0 6.0 0.00 0.00 0.00 65 1016.2
20260509075103 62 28 3.0 6.0 0.00 0.00 0.00 65 1016.1
20260509074910 62 24 4.0 6.0 0.00 0.00 0.00 65 1016.2
20260509074804 61 20 4.0 6.0 0.00 0.00 0.00 65 1016.2
20260509074704 61 15 3.0 6.0 0.00 0.00 0.00 65 1016.1
20260509074604 61 10 3.0 6.0 0.00 0.00 0.00 66 1016.1
20260509074504 61 5 4.0 6.0 0.00 0.00 0.00 65 1016.1
20260509074403 61 4 4.0 6.0 0.00 0.00 0.00 65 1016.2
20260509074305 61 4 3.0 6.0 0.00 0.00 0.00 65 1016.1
20260509074205 61 2 3.0 6.0 0.00 0.00 0.00 64 1016.1
20260509074104 61 1 3.0 6.0 0.00 0.00 0.00 65 1016.1
20260509074005 61 357 2.0 6.0 0.00 0.00 0.00 66 1016.1
20260509073912 61 356 2.0 5.0 0.00 0.00 0.00 67 1016.1
20260509073704 61 354 2.0 5.0 0.00 0.00 0.00 67 1016.1
20260509073603 61 348 2.0 5.0 0.00 0.00 0.00 67 1016.1
20260509073504 61 348 2.0 5.0 0.00 0.00 0.00 68 1016.1
20260509073204 61 349 2.0 5.0 0.00 0.00 0.00 69 1016.1
20260509073103 61 350 2.0 5.0 0.00 0.00 0.00 70 1016.2
20260509072911 60 347 2.0 5.0 0.00 0.00 0.00 69 1016.2
20260509072704 60 347 2.0 5.0 0.00 0.00 0.00 70 1016.1
20260509072604 60 350 2.0 5.0 0.00 0.00 0.00 70 1016.3
20260509072404 60 348 2.0 5.0 0.00 0.00 0.00 69 1016.1
20260509072306 60 347 1.0 5.0 0.00 0.00 0.00 69 1016.1
20260509072203 60 351 1.0 5.0 0.00 0.00 0.00 69 1016.2
20260509072004 59 352 1.0 4.0 0.00 0.00 0.00 69 1016.2
20260509071910 59 351 1.0 4.0 0.00 0.00 0.00 69 1016.3
20260509071803 59 347 1.0 4.0 0.00 0.00 0.00 70 1016.2
20260509071704 59 352 1.0 4.0 0.00 0.00 0.00 70 1016.2
20260509071504 59 356 2.0 5.0 0.00 0.00 0.00 70 1016.3
20260509071404 59 354 2.0 5.0 0.00 0.00 0.00 70 1016.3
20260509071204 59 347 2.0 5.0 0.00 0.00 0.00 71 1016.3
20260509071104 59 347 2.0 5.0 0.00 0.00 0.00 71 1016.3
20260509071004 59 347 2.0 5.0 0.00 0.00 0.00 70 1016.4
20260509070911 59 346 2.0 5.0 0.00 0.00 0.00 71 1016.3
20260509070804 59 350 2.0 5.0 0.00 0.00 0.00 70 1016.2
20260509070704 59 353 2.0 5.0 0.00 0.00 0.00 70 1016.3
20260509070604 59 350 2.0 5.0 0.00 0.00 0.00 71 1016.3
20260509070504 59 350 2.0 5.0 0.00 0.00 0.00 71 1016.2
20260509070404 59 351 1.0 4.0 0.00 0.00 0.00 71 1016.1
20260509070204 59 352 1.0 4.0 0.00 0.00 0.00 71 1016.3
20260509070104 59 349 1.0 4.0 0.00 0.00 0.00 71 1016.3
20260509070004 59 340 1.0 4.0 0.00 0.00 0.00 71 1016.3
20260509065803 59 334 2.0 6.0 0.00 0.00 0.00 71 1016.3
20260509065704 59 331 2.0 6.0 0.00 0.00 0.00 72 1016.4
20260509065603 58 333 2.0 6.0 0.00 0.00 0.00 72 1016.4
20260509065504 58 335 2.0 6.0 0.00 0.00 0.00 73 1016.4
20260509065404 58 334 2.0 6.0 0.00 0.00 0.00 73 1016.4
20260509065306 58 338 3.0 6.0 0.00 0.00 0.00 73 1016.6
20260509065204 57 343 3.0 7.0 0.00 0.00 0.00 72 1016.4
20260509065103 58 345 3.0 7.0 0.00 0.00 0.00 72 1016.4
20260509064911 58 347 3.0 7.0 0.00 0.00 0.00 73 1016.5
20260509064804 57 351 3.0 7.0 0.00 0.00 0.00 74 1016.5
20260509064703 57 352 3.0 7.0 0.00 0.00 0.00 74 1016.5
20260509064603 57 350 3.0 7.0 0.00 0.00 0.00 74 1016.5
20260509064504 57 353 4.0 7.0 0.00 0.00 0.00 74 1016.5
20260509064405 57 354 4.0 7.0 0.00 0.00 0.00 74 1016.5
20260509064304 57 353 3.0 7.0 0.00 0.00 0.00 74 1016.5
20260509064205 57 351 3.0 7.0 0.00 0.00 0.00 74 1016.6
20260509064104 57 352 3.0 7.0 0.00 0.00 0.00 74 1016.5
20260509064004 57 352 3.0 7.0 0.00 0.00 0.00 75 1016.5
20260509063804 57 348 4.0 7.0 0.00 0.00 0.00 75 1016.6
20260509063704 56 346 4.0 7.0 0.00 0.00 0.00 74 1016.6
20260509063504 56 345 4.0 7.0 0.00 0.00 0.00 76 1016.7
20260509063404 56 345 4.0 7.0 0.00 0.00 0.00 75 1016.6
20260509063204 56 346 4.0 7.0 0.00 0.00 0.00 76 1016.6
20260509063104 56 346 4.0 7.0 0.00 0.00 0.00 75 1016.6
20260509062911 56 350 3.0 7.0 0.00 0.00 0.00 76 1016.6
20260509062804 56 350 3.0 7.0 0.00 0.00 0.00 76 1016.5
20260509062704 56 352 3.0 7.0 0.00 0.00 0.00 75 1016.7
20260509062603 56 353 3.0 7.0 0.00 0.00 0.00 76 1016.6
20260509062504 56 350 3.0 6.0 0.00 0.00 0.00 76 1016.6
20260509062404 56 350 3.0 6.0 0.00 0.00 0.00 76 1016.6
20260509062306 56 353 3.0 6.0 0.00 0.00 0.00 76 1016.6
20260509062204 56 357 3.0 6.0 0.00 0.00 0.00 76 1016.6
20260509062103 56 355 3.0 6.0 0.00 0.00 0.00 76 1016.6
20260509062004 56 354 3.0 6.0 0.00 0.00 0.00 76 1016.6
20260509061910 56 351 2.0 6.0 0.00 0.00 0.00 76 1016.6
20260509061803 56 351 2.0 6.0 0.00 0.00 0.00 76 1016.6
20260509061704 56 350 2.0 5.0 0.00 0.00 0.00 76 1016.5
20260509061604 56 349 2.0 5.0 0.00 0.00 0.00 77 1016.6
20260509061505 56 351 2.0 5.0 0.00 0.00 0.00 77 1016.6
20260509061303 56 350 2.0 4.0 0.00 0.00 0.00 77 1016.6
20260509061203 55 345 2.0 4.0 0.00 0.00 0.00 77 1016.6
20260509061103 55 345 2.0 4.0 0.00 0.00 0.00 77 1016.5
20260509061004 55 345 2.0 4.0 0.00 0.00 0.00 78 1016.5
20260509060910 55 346 2.0 4.0 0.00 0.00 0.00 78 1016.6
20260509060804 55 347 2.0 4.0 0.00 0.00 0.00 78 1016.6
20260509060704 55 347 2.0 4.0 0.00 0.00 0.00 78 1016.7
20260509060603 55 345 1.0 4.0 0.00 0.00 0.00 78 1016.7
20260509060504 55 344 1.0 4.0 0.00 0.00 0.00 78 1016.6
20260509060404 55 341 1.0 5.0 0.00 0.00 0.00 78 1016.6
20260509060304 55 344 2.0 5.0 0.00 0.00 0.00 78 1016.6
20260509060104 55 346 2.0 6.0 0.00 0.00 0.00 79 1016.6
20260509060005 54 345 2.0 6.0 0.00 0.00 0.00 78 1016.7
20260509055909 54 344 2.0 6.0 0.00 0.00 0.00 78 1016.7
20260509055803 54 343 3.0 6.0 0.00 0.00 0.00 79 1016.7
20260509055704 54 342 3.0 6.0 0.00 0.00 0.00 79 1016.7
20260509055603 54 340 3.0 6.0 0.00 0.00 0.00 79 1016.7
20260509055405 54 335 3.0 6.0 0.00 0.00 0.00 79 1016.7
20260509055306 54 331 3.0 6.0 0.00 0.00 0.00 80 1016.7
20260509055204 54 328 2.0 5.0 0.00 0.00 0.00 80 1016.6
20260509055104 54 326 2.0 4.0 0.00 0.00 0.00 80 1016.7
20260509054805 54 327 2.0 5.0 0.00 0.00 0.00 80 1016.7
20260509054703 54 329 2.0 5.0 0.00 0.00 0.00 80 1016.7
20260509054604 54 331 2.0 5.0 0.00 0.00 0.00 80 1016.6
20260509054504 54 333 2.0 5.0 0.00 0.00 0.00 79 1016.7
20260509054404 54 335 2.0 5.0 0.00 0.00 0.00 79 1016.6
20260509054304 54 336 2.0 5.0 0.00 0.00 0.00 79 1016.7
20260509054204 54 338 2.0 5.0 0.00 0.00 0.00 79 1016.6
20260509054104 54 338 2.0 5.0 0.00 0.00 0.00 80 1016.7
20260509054004 54 339 2.0 5.0 0.00 0.00 0.00 79 1016.7
20260509053910 54 337 2.0 4.0 0.00 0.00 0.00 80 1016.6
20260509053804 54 334 2.0 4.0 0.00 0.00 0.00 80 1016.7
20260509053705 54 332 2.0 4.0 0.00 0.00 0.00 80 1016.6
20260509053604 54 329 2.0 4.0 0.00 0.00 0.00 80 1016.5
20260509053504 54 327 2.0 4.0 0.00 0.00 0.00 80 1016.6
20260509053404 54 324 2.0 4.0 0.00 0.00 0.00 80 1016.5
20260509053304 54 323 1.0 4.0 0.00 0.00 0.00 80 1016.6
20260509053204 54 324 1.0 3.0 0.00 0.00 0.00 80 1016.6
20260509053104 54 321 1.0 3.0 0.00 0.00 0.00 80 1016.5
20260509053004 54 315 1.0 3.0 0.00 0.00 0.00 80 1016.6
20260509052910 54 312 1.0 3.0 0.00 0.00 0.00 80 1016.6
20260509052804 54 310 1.0 3.0 0.00 0.00 0.00 80 1016.6
20260509052604 54 307 1.0 3.0 0.00 0.00 0.00 80 1016.6
20260509052504 54 299 1.0 3.0 0.00 0.00 0.00 81 1016.6
20260509052403 53 294 1.0 3.0 0.00 0.00 0.00 81 1016.6
20260509052307 53 284 1.0 4.0 0.00 0.00 0.00 80 1016.7
20260509052203 53 275 1.0 4.0 0.00 0.00 0.00 80 1016.6
20260509052104 53 270 1.0 4.0 0.00 0.00 0.00 81 1016.6
20260509051804 53 270 1.0 4.0 0.00 0.00 0.00 81 1016.6
20260509051704 53 269 1.0 4.0 0.00 0.00 0.00 82 1016.7
20260509051604 53 268 1.0 4.0 0.00 0.00 0.00 82 1016.6
20260509051504 53 270 1.0 4.0 0.00 0.00 0.00 82 1016.6
20260509051404 53 272 1.0 4.0 0.00 0.00 0.00 82 1016.6
20260509051304 53 276 1.0 3.0 0.00 0.00 0.00 82 1016.6
20260509051204 53 272 1.0 4.0 0.00 0.00 0.00 82 1016.6
20260509051104 53 263 1.0 4.0 0.00 0.00 0.00 82 1016.6
20260509051004 53 254 1.0 5.0 0.00 0.00 0.00 82 1016.5
20260509050912 53 244 2.0 6.0 0.00 0.00 0.00 82 1016.5
20260509050704 53 234 2.0 6.0 0.00 0.00 0.00 83 1016.4
20260509050504 53 231 3.0 6.0 0.00 0.00 0.00 83 1016.5
20260509050404 52 230 3.0 6.0 0.00 0.00 0.00 84 1016.6
20260509050209 52 231 3.0 6.0 0.00 0.00 0.00 84 1016.5
20260509050104 52 231 3.0 6.0 0.00 0.00 0.00 84 1016.6
20260509050005 52 232 3.0 6.0 0.00 0.00 0.00 84 1016.6
20260509045903 52 234 3.0 6.0 0.00 0.00 0.00 84 1016.6
20260509045804 52 235 3.0 5.0 0.00 0.00 0.00 84 1016.5
20260509045703 52 237 2.0 5.0 0.00 0.00 0.00 84 1016.5
20260509045603 52 239 2.0 4.0 0.00 0.00 0.00 84 1016.5
20260509045504 52 239 2.0 4.0 0.00 0.00 0.00 84 1016.5
20260509045404 52 237 2.0 4.0 0.00 0.00 0.00 84 1016.5
20260509045306 52 237 2.0 4.0 0.00 0.00 0.00 85 1016.5
20260509045211 52 236 2.0 4.0 0.00 0.00 0.00 84 1016.5
20260509045104 52 235 2.0 4.0 0.00 0.00 0.00 84 1016.4
20260509045003 51 234 2.0 4.0 0.00 0.00 0.00 85 1016.4
20260509044904 51 233 2.0 4.0 0.00 0.00 0.00 85 1016.4
20260509044804 51 234 2.0 4.0 0.00 0.00 0.00 85 1016.4
20260509044704 51 234 2.0 4.0 0.00 0.00 0.00 85 1016.4
20260509044604 51 233 2.0 4.0 0.00 0.00 0.00 85 1016.4
20260509044504 51 233 2.0 4.0 0.00 0.00 0.00 84 1016.3
20260509044404 51 234 2.0 4.0 0.00 0.00 0.00 84 1016.3
20260509044304 51 234 2.0 4.0 0.00 0.00 0.00 84 1016.3
20260509044104 51 234 1.0 4.0 0.00 0.00 0.00 84 1016.3
20260509043904 51 229 1.0 4.0 0.00 0.00 0.00 84 1016.3
20260509043803 52 224 1.0 4.0 0.00 0.00 0.00 84 1016.2
20260509043704 52 220 2.0 4.0 0.00 0.00 0.00 84 1016.2
20260509043510 52 217 2.0 4.0 0.00 0.00 0.00 84 1016.2
20260509043403 52 217 2.0 4.0 0.00 0.00 0.00 84 1016.1
20260509043204 51 220 3.0 4.0 0.00 0.00 0.00 85 1016.1
20260509043104 51 220 3.0 4.0 0.00 0.00 0.00 85 1016.1
20260509043004 51 222 3.0 4.0 0.00 0.00 0.00 85 1016.0
20260509042904 51 224 3.0 5.0 0.00 0.00 0.00 85 1016.0
20260509042804 51 228 2.0 5.0 0.00 0.00 0.00 85 1016.1
20260509042704 51 231 2.0 5.0 0.00 0.00 0.00 85 1016.0
20260509042604 51 234 2.0 5.0 0.00 0.00 0.00 84 1016.1
20260509042204 51 243 1.0 5.0 0.00 0.00 0.00 84 1016.0
20260509042104 51 241 1.0 5.0 0.00 0.00 0.00 84 1016.0
20260509042005 51 237 1.0 5.0 0.00 0.00 0.00 84 1016.0
20260509041805 52 235 1.0 5.0 0.00 0.00 0.00 84 1015.9
20260509041704 52 236 1.0 5.0 0.00 0.00 0.00 84 1015.9
20260509041516 52 241 1.0 5.0 0.00 0.00 0.00 84 1015.8
20260509041404 51 245 1.0 5.0 0.00 0.00 0.00 84 1015.8
20260509041303 51 247 1.0 5.0 0.00 0.00 0.00 84 1015.8
20260509041204 51 249 2.0 5.0 0.00 0.00 0.00 84 1015.8
20260509041104 51 252 2.0 5.0 0.00 0.00 0.00 84 1015.8
20260509041004 51 258 1.0 3.0 0.00 0.00 0.00 84 1015.7
20260509040810 52 241 2.0 5.0 0.00 0.00 0.00 84 1015.8
20260509040704 52 232 2.0 5.0 0.00 0.00 0.00 84 1015.9
20260509040505 52 222 2.0 5.0 0.00 0.00 0.00 84 1015.7
20260509040404 52 220 2.0 5.0 0.00 0.00 0.00 84 1015.7
20260509040303 52 218 3.0 5.0 0.00 0.00 0.00 85 1015.7
20260509040204 51 216 3.0 5.0 0.00 0.00 0.00 85 1015.7
20260509040104 51 217 3.0 5.0 0.00 0.00 0.00 85 1015.6
20260509040005 51 217 3.0 5.0 0.00 0.00 0.00 85 1015.6
20260509035904 51 218 3.0 5.0 0.00 0.00 0.00 84 1015.6
20260509035813 51 219 3.0 5.0 0.00 0.00 0.00 84 1015.8
20260509035605 51 222 3.0 4.0 0.00 0.00 0.00 84 1015.8
20260509035504 51 221 3.0 4.0 0.00 0.00 0.00 84 1015.7
20260509035404 51 221 3.0 4.0 0.00 0.00 0.00 84 1015.7
20260509035306 51 220 3.0 4.0 0.00 0.00 0.00 84 1015.7
20260509035203 51 220 3.0 4.0 0.00 0.00 0.00 84 1015.8
20260509035109 51 220 3.0 4.0 0.00 0.00 0.00 84 1015.6
20260509035004 51 219 3.0 5.0 0.00 0.00 0.00 84 1015.6
20260509034903 51 220 3.0 5.0 0.00 0.00 0.00 84 1015.7
20260509034803 51 221 3.0 5.0 0.00 0.00 0.00 85 1015.7
20260509034704 51 222 3.0 5.0 0.00 0.00 0.00 85 1015.7
20260509034604 51 224 3.0 5.0 0.00 0.00 0.00 85 1015.7
20260509034504 51 225 3.0 5.0 0.00 0.00 0.00 85 1015.7
20260509034404 51 226 3.0 5.0 0.00 0.00 0.00 84 1015.7
20260509034304 51 228 3.0 5.0 0.00 0.00 0.00 84 1015.7
20260509034204 51 228 3.0 5.0 0.00 0.00 0.00 84 1015.6
20260509034111 51 227 3.0 5.0 0.00 0.00 0.00 84 1015.7
20260509034004 51 228 3.0 5.0 0.00 0.00 0.00 84 1015.7
20260509033904 51 228 4.0 5.0 0.00 0.00 0.00 84 1015.8
20260509033804 51 228 3.0 5.0 0.00 0.00 0.00 84 1015.7
20260509033704 51 230 3.0 5.0 0.00 0.00 0.00 84 1015.7
20260509033603 51 231 3.0 5.0 0.00 0.00 0.00 83 1015.8
20260509033504 51 233 3.0 5.0 0.00 0.00 0.00 83 1015.8
20260509033409 52 236 3.0 5.0 0.00 0.00 0.00 83 1015.8
20260509033304 52 238 3.0 5.0 0.00 0.00 0.00 82 1015.9
20260509033204 52 241 3.0 5.0 0.00 0.00 0.00 83 1015.8
20260509033004 52 250 3.0 5.0 0.00 0.00 0.00 82 1015.9
20260509032804 52 258 2.0 4.0 0.00 0.00 0.00 83 1015.8
20260509032603 52 258 1.0 4.0 0.00 0.00 0.00 83 1015.8
20260509032306 52 239 1.0 3.0 0.00 0.00 0.00 83 1015.7
20260509032204 52 230 1.0 3.0 0.00 0.00 0.00 83 1015.7
20260509032104 52 217 1.0 3.0 0.00 0.00 0.00 83 1015.8
20260509032005 52 204 1.0 2.0 0.00 0.00 0.00 83 1015.7
20260509031904 52 204 1.0 3.0 0.00 0.00 0.00 83 1015.8
20260509031804 52 211 1.0 3.0 0.00 0.00 0.00 83 1015.7
20260509031709 52 213 1.0 3.0 0.00 0.00 0.00 83 1015.8
20260509031603 52 213 1.0 3.0 0.00 0.00 0.00 83 1015.7
20260509031504 52 210 1.0 3.0 0.00 0.00 0.00 83 1015.7
20260509031403 52 215 1.0 3.0 0.00 0.00 0.00 82 1015.7
20260509031304 52 240 1.0 3.0 0.00 0.00 0.00 82 1015.7
20260509031203 52 258 1.0 3.0 0.00 0.00 0.00 82 1015.8
20260509031103 52 273 1.0 3.0 0.00 0.00 0.00 82 1015.7
20260509031004 53 288 1.0 3.0 0.00 0.00 0.00 82 1015.7
20260509030903 53 300 1.0 3.0 0.00 0.00 0.00 82 1015.7
20260509030804 53 316 1.0 3.0 0.00 0.00 0.00 83 1015.7
20260509030711 53 312 1.0 3.0 0.00 0.00 0.00 83 1015.7
20260509030604 53 308 1.0 3.0 0.00 0.00 0.00 82 1015.8
20260509030404 53 299 1.0 3.0 0.00 0.00 0.00 82 1015.8
20260509030304 53 290 1.0 3.0 0.00 0.00 0.00 83 1015.8
20260509030204 53 274 1.0 3.0 0.00 0.00 0.00 83 1015.9
20260509030104 53 262 1.0 3.0 0.00 0.00 0.00 83 1015.9
20260509030009 52 247 1.0 3.0 0.00 0.00 0.00 83 1015.9
20260509025904 52 239 1.0 4.0 0.00 0.00 0.00 83 1015.9
20260509025804 52 239 1.0 4.0 0.00 0.00 0.00 83 1015.9
20260509025704 52 239 1.0 4.0 0.00 0.00 0.00 83 1015.9
20260509025603 52 237 2.0 4.0 0.00 0.00 0.00 83 1015.9
20260509025504 52 233 2.0 4.0 0.00 0.00 0.00 83 1015.9
20260509025404 52 234 2.0 4.0 0.00 0.00 0.00 83 1016.0
20260509025307 52 232 2.0 5.0 0.00 0.00 0.00 83 1016.0
20260509025204 52 231 2.0 5.0 0.00 0.00 0.00 83 1016.0
20260509025104 52 231 3.0 5.0 0.00 0.00 0.00 82 1015.9
20260509024804 52 231 3.0 5.0 0.00 0.00 0.00 82 1016.0
20260509024704 52 233 3.0 5.0 0.00 0.00 0.00 82 1015.9
20260509024604 52 235 3.0 5.0 0.00 0.00 0.00 81 1016.0
20260509024504 52 237 3.0 5.0 0.00 0.00 0.00 81 1015.8
20260509024403 53 238 3.0 5.0 0.00 0.00 0.00 80 1015.9
20260509024312 53 240 3.0 5.0 0.00 0.00 0.00 80 1015.9
20260509024204 53 242 2.0 5.0 0.00 0.00 0.00 80 1015.9
20260509024103 53 241 2.0 5.0 0.00 0.00 0.00 79 1015.7
20260509024004 53 241 2.0 5.0 0.00 0.00 0.00 79 1015.8
20260509023904 54 238 2.0 4.0 0.00 0.00 0.00 79 1015.6
20260509023804 54 234 2.0 4.0 0.00 0.00 0.00 79 1015.7
20260509023704 54 224 1.0 3.0 0.00 0.00 0.00 80 1015.7
20260509023608 54 214 1.0 3.0 0.00 0.00 0.00 80 1015.7
20260509023504 54 207 1.0 3.0 0.00 0.00 0.00 80 1015.7
20260509023404 54 204 1.0 4.0 0.00 0.00 0.00 80 1015.7
20260509023304 54 202 2.0 4.0 0.00 0.00 0.00 80 1015.7
20260509023203 54 201 2.0 4.0 0.00 0.00 0.00 80 1015.6
20260509023104 54 205 2.0 4.0 0.00 0.00 0.00 80 1015.6
20260509023004 54 207 2.0 4.0 0.00 0.00 0.00 81 1015.6
20260509022805 54 218 2.0 4.0 0.00 0.00 0.00 81 1015.5
20260509022705 54 223 2.0 4.0 0.00 0.00 0.00 81 1015.7
20260509022611 53 226 2.0 4.0 0.00 0.00 0.00 81 1015.5
20260509022503 53 224 2.0 4.0 0.00 0.00 0.00 82 1015.5
20260509022405 53 220 2.0 4.0 0.00 0.00 0.00 82 1015.5
20260509022307 53 217 2.0 4.0 0.00 0.00 0.00 82 1015.6
20260509022104 53 213 2.0 4.0 0.00 0.00 0.00 82 1015.6
20260509021909 53 217 2.0 4.0 0.00 0.00 0.00 82 1015.5
20260509021803 53 214 1.0 4.0 0.00 0.00 0.00 82 1015.5
20260509021603 53 213 1.0 3.0 0.00 0.00 0.00 82 1015.5
20260509021504 53 230 1.0 3.0 0.00 0.00 0.00 82 1015.5
20260509021404 53 250 1.0 3.0 0.00 0.00 0.00 82 1015.5
20260509021304 53 264 1.0 3.0 0.00 0.00 0.00 81 1015.5
20260509021203 53 270 1.0 3.0 0.00 0.00 0.00 81 1015.5
20260509020904 53 283 1.0 4.0 0.00 0.00 0.00 81 1015.6
20260509020803 53 286 1.0 4.0 0.00 0.00 0.00 81 1015.5
20260509020703 53 287 1.0 4.0 0.00 0.00 0.00 81 1015.6
20260509020611 53 289 1.0 4.0 0.00 0.00 0.00 81 1015.6
20260509020505 53 295 1.0 4.0 0.00 0.00 0.00 81 1015.6
20260509020404 53 301 1.0 4.0 0.00 0.00 0.00 81 1015.7
20260509020304 53 303 1.0 4.0 0.00 0.00 0.00 81 1015.6
20260509020104 53 307 1.0 4.0 0.00 0.00 0.00 81 1015.6
20260509020004 53 315 1.0 4.0 0.00 0.00 0.00 81 1015.8
20260509015904 53 322 1.0 4.0 0.00 0.00 0.00 81 1015.8
20260509015804 53 325 1.0 4.0 0.00 0.00 0.00 81 1015.7
20260509015704 53 324 1.0 4.0 0.00 0.00 0.00 82 1015.7
20260509015610 53 324 2.0 4.0 0.00 0.00 0.00 82 1015.8
20260509015504 53 326 2.0 5.0 0.00 0.00 0.00 82 1015.7
20260509015403 53 325 2.0 5.0 0.00 0.00 0.00 82 1015.8
20260509015306 53 325 2.0 5.0 0.00 0.00 0.00 81 1015.8
20260509015204 53 325 2.0 5.0 0.00 0.00 0.00 81 1015.8
20260509015104 53 323 2.0 5.0 0.00 0.00 0.00 81 1015.8
20260509014804 53 285 2.0 5.0 0.00 0.00 0.00 82 1015.8
20260509014404 53 249 1.0 4.0 0.00 0.00 0.00 81 1015.8
20260509014304 53 249 1.0 4.0 0.00 0.00 0.00 81 1015.9
20260509014203 53 248 1.0 4.0 0.00 0.00 0.00 81 1015.8
20260509014104 53 247 1.0 5.0 0.00 0.00 0.00 81 1015.8
20260509014004 53 244 2.0 5.0 0.00 0.00 0.00 81 1015.9
20260509013910 53 244 2.0 5.0 0.00 0.00 0.00 82 1015.8
20260509013804 53 243 2.0 5.0 0.00 0.00 0.00 82 1015.8
20260509013704 53 241 2.0 5.0 0.00 0.00 0.00 82 1015.8
20260509013604 53 240 3.0 7.0 0.00 0.00 0.00 82 1015.8
20260509013504 53 238 3.0 7.0 0.00 0.00 0.00 82 1015.8
20260509013404 53 236 4.0 7.0 0.00 0.00 0.00 82 1015.8
20260509013304 53 234 4.0 7.0 0.00 0.00 0.00 83 1015.8
20260509013104 53 232 5.0 7.0 0.00 0.00 0.00 82 1015.9
20260509013004 53 232 5.0 7.0 0.00 0.00 0.00 82 1015.8
20260509012903 53 231 5.0 7.0 0.00 0.00 0.00 82 1015.9
20260509012803 53 230 5.0 7.0 0.00 0.00 0.00 82 1015.9
20260509012604 53 227 6.0 8.0 0.00 0.00 0.00 83 1016.0
20260509012504 53 227 6.0 8.0 0.00 0.00 0.00 83 1015.8
20260509012404 53 226 6.0 8.0 0.00 0.00 0.00 83 1016.0
20260509012307 53 225 6.0 8.0 0.00 0.00 0.00 83 1016.0
20260509012210 52 225 6.0 8.0 0.00 0.00 0.00 82 1015.9
20260509012104 53 224 6.0 8.0 0.00 0.00 0.00 82 1015.9
20260509012004 53 223 6.0 8.0 0.00 0.00 0.00 82 1016.0
20260509011803 53 222 6.0 8.0 0.00 0.00 0.00 82 1016.0
20260509011704 53 222 6.0 8.0 0.00 0.00 0.00 82 1015.9
20260509011603 53 221 6.0 8.0 0.00 0.00 0.00 82 1016.0
20260509011404 53 221 5.0 8.0 0.00 0.00 0.00 82 1015.9
20260509011303 53 221 5.0 8.0 0.00 0.00 0.00 82 1016.0
20260509011213 53 220 5.0 7.0 0.00 0.00 0.00 82 1016.0
20260509011104 53 220 5.0 7.0 0.00 0.00 0.00 82 1015.9
20260509011004 53 220 5.0 7.0 0.00 0.00 0.00 82 1015.9
20260509010904 53 220 5.0 7.0 0.00 0.00 0.00 81 1016.0
20260509010804 53 219 5.0 7.0 0.00 0.00 0.00 81 1016.0
20260509010510 53 217 5.0 7.0 0.00 0.00 0.00 81 1016.1
20260509010404 53 217 5.0 7.0 0.00 0.00 0.00 81 1016.0
20260509010303 53 217 4.0 6.0 0.00 0.00 0.00 81 1015.9
20260509010203 53 217 4.0 6.0 0.00 0.00 0.00 81 1016.0
20260509010103 53 218 4.0 6.0 0.00 0.00 0.00 81 1015.9
20260509010004 53 219 4.0 6.0 0.00 0.00 0.00 81 1015.9
20260509005809 53 222 4.0 6.0 0.00 0.00 0.00 81 1016.0
20260509005704 53 223 4.0 6.0 0.00 0.00 0.00 80 1015.9
20260509005604 53 224 4.0 6.0 0.00 0.00 0.00 80 1015.9
20260509005504 53 226 3.0 6.0 0.00 0.00 0.00 80 1015.9
20260509005404 53 229 3.0 6.0 0.00 0.00 0.00 80 1015.9
20260509005306 53 232 3.0 6.0 0.00 0.00 0.00 80 1015.9
20260509005203 54 234 3.0 6.0 0.00 0.00 0.00 80 1015.8
20260509004904 54 240 2.0 4.0 0.00 0.00 0.00 80 1015.8
20260509004504 54 244 2.0 4.0 0.00 0.00 0.00 80 1015.8
20260509004403 54 241 2.0 4.0 0.00 0.00 0.00 80 1015.9
20260509004304 54 239 2.0 4.0 0.00 0.00 0.00 80 1015.8
20260509004204 54 240 2.0 5.0 0.00 0.00 0.00 80 1015.8
20260509004109 54 241 2.0 5.0 0.00 0.00 0.00 80 1015.8
20260509004004 54 242 2.0 5.0 0.00 0.00 0.00 80 1015.8
20260509003804 54 247 2.0 5.0 0.00 0.00 0.00 80 1015.8
20260509003704 54 249 2.0 5.0 0.00 0.00 0.00 80 1015.8
20260509003604 54 249 2.0 5.0 0.00 0.00 0.00 80 1015.8
20260509003504 54 250 2.0 5.0 0.00 0.00 0.00 80 1015.8
20260509003408 54 255 2.0 5.0 0.00 0.00 0.00 80 1015.9
20260509003204 54 265 1.0 5.0 0.00 0.00 0.00 80 1015.7
20260509003104 54 272 1.0 3.0 0.00 0.00 0.00 80 1015.8
20260509003004 54 277 1.0 3.0 0.00 0.00 0.00 80 1015.8
20260509002904 54 279 1.0 2.0 0.00 0.00 0.00 80 1015.7
20260509002804 54 281 1.0 2.0 0.00 0.00 0.00 80 1015.7
20260509002704 54 285 1.0 2.0 0.00 0.00 0.00 80 1015.8
20260509002504 54 287 0.0 2.0 0.00 0.00 0.00 80 1015.9
20260509002412 54 287 0.0 2.0 0.00 0.00 0.00 80 1015.8
20260509002306 54 284 1.0 2.0 0.00 0.00 0.00 80 1015.8
20260509002204 54 280 1.0 3.0 0.00 0.00 0.00 80 1015.9
20260509002104 54 281 1.0 3.0 0.00 0.00 0.00 80 1015.8
20260509002004 54 280 1.0 3.0 0.00 0.00 0.00 80 1015.8
20260509001904 54 279 1.0 3.0 0.00 0.00 0.00 80 1015.8
20260509001804 54 276 1.0 3.0 0.00 0.00 0.00 80 1015.8
20260509001711 54 270 1.0 4.0 0.00 0.00 0.00 80 1015.8
20260509001604 54 266 1.0 4.0 0.00 0.00 0.00 81 1015.8
20260509001504 54 261 2.0 7.0 0.00 0.00 0.00 81 1015.8
20260509001404 54 252 2.0 7.0 0.00 0.00 0.00 81 1015.8
20260509001304 54 247 3.0 8.0 0.00 0.00 0.00 81 1015.8
20260509001204 54 243 3.0 8.0 0.00 0.00 0.00 81 1015.8
20260509001103 54 239 4.0 8.0 0.00 0.00 0.00 81 1015.7
20260509001009 54 235 4.0 8.0 0.00 0.00 0.00 81 1015.8
20260509000903 54 233 5.0 8.0 0.00 0.00 0.00 81 1015.6
20260509000804 54 231 5.0 8.0 0.00 0.00 0.00 81 1015.7
20260509000704 54 230 6.0 8.0 0.00 0.00 0.00 81 1015.7
20260509000504 53 228 6.0 8.0 0.00 0.00 0.00 81 1015.8
20260509000403 53 228 6.0 8.0 0.00 0.00 0.00 81 1015.7
20260509000204 53 227 6.0 9.0 0.00 0.00 0.00 81 1015.8
20260509000104 53 226 7.0 9.0 0.00 0.00 0.00 81 1015.8
20260509000010 53 226 7.0 9.0 0.00 0.00 0.00 81 1015.7
20260508235904 53 225 7.0 9.0 0.00 0.00 0.00 81 1015.8
20260508235804 53 224 6.0 9.0 0.00 0.00 0.00 81 1015.7
20260508235704 53 223 6.0 9.0 0.00 0.00 0.00 81 1015.8
20260508235604 53 222 6.0 9.0 0.00 0.00 0.00 81 1015.6
20260508235405 53 219 7.0 9.0 0.00 0.00 0.00 81 1015.7
20260508235309 53 218 6.0 9.0 0.00 0.00 0.00 81 1015.7
20260508235203 54 216 6.0 9.0 0.00 0.00 0.00 81 1015.7
20260508235104 54 215 6.0 9.0 0.00 0.00 0.00 81 1015.6
20260508235004 54 213 6.0 9.0 0.00 0.00 0.00 81 1015.6
20260508234904 54 213 6.0 9.0 0.00 0.00 0.00 80 1015.7
20260508234804 54 212 6.0 9.0 0.00 0.00 0.00 80 1015.7
20260508234703 54 212 6.0 9.0 0.00 0.00 0.00 80 1015.7
20260508234604 54 213 6.0 9.0 0.00 0.00 0.00 80 1015.7
20260508234312 54 213 6.0 9.0 0.00 0.00 0.00 80 1015.6
20260508234204 54 213 6.0 9.0 0.00 0.00 0.00 80 1015.6
20260508234104 54 214 5.0 9.0 0.00 0.00 0.00 80 1015.7
20260508234004 54 213 5.0 9.0 0.00 0.00 0.00 79 1015.6
20260508233904 54 213 4.0 8.0 0.00 0.00 0.00 79 1015.7
20260508233804 54 213 4.0 8.0 0.00 0.00 0.00 79 1015.7
20260508233704 54 213 4.0 8.0 0.00 0.00 0.00 79 1015.7
20260508233611 54 213 4.0 8.0 0.00 0.00 0.00 79 1015.6
20260508233504 54 215 3.0 7.0 0.00 0.00 0.00 79 1015.5
20260508233304 55 216 2.0 5.0 0.00 0.00 0.00 79 1015.6
20260508233104 55 222 2.0 4.0 0.00 0.00 0.00 79 1015.5
20260508233005 55 223 2.0 4.0 0.00 0.00 0.00 79 1015.5
20260508232910 55 223 2.0 4.0 0.00 0.00 0.00 79 1015.5
20260508232803 55 224 2.0 4.0 0.00 0.00 0.00 78 1015.5
20260508232704 55 224 2.0 4.0 0.00 0.00 0.00 78 1015.5
20260508232504 55 228 2.0 4.0 0.00 0.00 0.00 79 1015.4
20260508232404 55 231 2.0 4.0 0.00 0.00 0.00 79 1015.5
20260508232307 55 234 2.0 4.0 0.00 0.00 0.00 79 1015.5
20260508231904 55 254 2.0 4.0 0.00 0.00 0.00 79 1015.6
20260508231803 55 266 2.0 4.0 0.00 0.00 0.00 79 1015.5
20260508231604 55 291 1.0 4.0 0.00 0.00 0.00 79 1015.6
20260508231508 55 299 1.0 4.0 0.00 0.00 0.00 79 1015.6
20260508231303 55 297 1.0 3.0 0.00 0.00 0.00 79 1015.6
20260508231204 55 287 1.0 5.0 0.00 0.00 0.00 79 1015.5
20260508231104 55 276 2.0 5.0 0.00 0.00 0.00 79 1015.5
20260508231004 55 264 2.0 6.0 0.00 0.00 0.00 79 1015.6
20260508230904 55 255 2.0 6.0 0.00 0.00 0.00 79 1015.6
20260508230808 55 249 3.0 6.0 0.00 0.00 0.00 79 1015.5
20260508230704 55 242 3.0 6.0 0.00 0.00 0.00 79 1015.5
20260508230603 55 237 3.0 6.0 0.00 0.00 0.00 79 1015.6
20260508230504 55 233 3.0 6.0 0.00 0.00 0.00 79 1015.6
20260508230403 55 230 4.0 6.0 0.00 0.00 0.00 79 1015.5
20260508230304 55 229 4.0 7.0 0.00 0.00 0.00 79 1015.5
20260508230107 55 225 5.0 7.0 0.00 0.00 0.00 79 1015.7
20260508230004 55 224 5.0 7.0 0.00 0.00 0.00 79 1015.7
20260508225903 55 223 5.0 7.0 0.00 0.00 0.00 79 1015.6
20260508225803 55 224 5.0 7.0 0.00 0.00 0.00 79 1015.6
20260508225704 55 224 5.0 8.0 0.00 0.00 0.00 79 1015.6
20260508225604 55 224 5.0 8.0 0.00 0.00 0.00 79 1015.7
20260508225504 55 224 5.0 8.0 0.00 0.00 0.00 79 1015.6
20260508225406 55 225 5.0 8.0 0.00 0.00 0.00 79 1015.6
20260508225204 55 226 5.0 8.0 0.00 0.00 0.00 79 1015.7
20260508225111 55 227 5.0 8.0 0.00 0.00 0.00 79 1015.8
20260508224903 55 227 5.0 8.0 0.00 0.00 0.00 79 1015.7
20260508224804 55 226 5.0 8.0 0.00 0.00 0.00 79 1015.7
20260508224703 55 224 5.0 8.0 0.00 0.00 0.00 79 1015.7
20260508224603 55 223 5.0 8.0 0.00 0.00 0.00 79 1015.6
20260508224204 55 219 5.0 8.0 0.00 0.00 0.00 79 1015.6
20260508224104 55 219 5.0 8.0 0.00 0.00 0.00 79 1015.6
20260508224004 55 219 5.0 8.0 0.00 0.00 0.00 79 1015.6
20260508223905 55 219 5.0 8.0 0.00 0.00 0.00 79 1015.7
20260508223804 55 219 5.0 8.0 0.00 0.00 0.00 79 1015.7
20260508223704 55 221 5.0 8.0 0.00 0.00 0.00 79 1015.7
20260508223604 55 223 5.0 8.0 0.00 0.00 0.00 79 1015.7
20260508223504 55 225 5.0 8.0 0.00 0.00 0.00 78 1015.7
20260508223414 55 227 5.0 7.0 0.00 0.00 0.00 78 1015.7
20260508223304 55 229 4.0 7.0 0.00 0.00 0.00 78 1015.7
20260508223203 55 231 4.0 7.0 0.00 0.00 0.00 78 1015.6
20260508223104 55 233 4.0 7.0 0.00 0.00 0.00 79 1015.7
20260508222903 55 236 4.0 7.0 0.00 0.00 0.00 79 1015.7
20260508222803 55 237 4.0 7.0 0.00 0.00 0.00 78 1015.6
20260508222505 55 237 5.0 7.0 0.00 0.00 0.00 79 1015.6
20260508222403 55 235 5.0 7.0 0.00 0.00 0.00 79 1015.6
20260508222306 55 233 5.0 7.0 0.00 0.00 0.00 78 1015.6
20260508222104 55 231 5.0 7.0 0.00 0.00 0.00 78 1015.6
20260508222009 55 230 5.0 7.0 0.00 0.00 0.00 78 1015.6
20260508221904 55 229 5.0 7.0 0.00 0.00 0.00 78 1015.6
20260508221604 55 227 5.0 7.0 0.00 0.00 0.00 78 1015.5
20260508221504 55 226 5.0 7.0 0.00 0.00 0.00 78 1015.5
20260508221304 55 226 5.0 7.0 0.00 0.00 0.00 78 1015.5
20260508221204 55 226 5.0 7.0 0.00 0.00 0.00 78 1015.4
20260508221104 56 226 5.0 7.0 0.00 0.00 0.00 77 1015.4
20260508221013 56 226 5.0 7.0 0.00 0.00 0.00 77 1015.4
20260508220904 56 227 5.0 7.0 0.00 0.00 0.00 77 1015.4
20260508220704 56 227 5.0 7.0 0.00 0.00 0.00 78 1015.4
20260508220604 56 228 5.0 7.0 0.00 0.00 0.00 77 1015.5
20260508220504 56 230 5.0 7.0 0.00 0.00 0.00 77 1015.5
20260508220204 56 236 4.0 7.0 0.00 0.00 0.00 77 1015.4
20260508220105 56 235 4.0 7.0 0.00 0.00 0.00 77 1015.4
20260508215904 56 234 3.0 7.0 0.00 0.00 0.00 77 1015.4
20260508215804 56 236 3.0 7.0 0.00 0.00 0.00 77 1015.4
20260508215705 56 238 3.0 7.0 0.00 0.00 0.00 78 1015.4
20260508215609 56 238 3.0 7.0 0.00 0.00 0.00 78 1015.4
20260508215504 56 238 3.0 7.0 0.00 0.00 0.00 78 1015.4
20260508215404 56 236 4.0 7.0 0.00 0.00 0.00 78 1015.5
20260508215203 56 233 4.0 8.0 0.00 0.00 0.00 78 1015.5
20260508215103 56 235 4.0 8.0 0.00 0.00 0.00 78 1015.6
20260508215004 56 235 4.0 8.0 0.00 0.00 0.00 78 1015.6
20260508214803 56 236 5.0 8.0 0.00 0.00 0.00 78 1015.6
20260508214704 56 235 5.0 8.0 0.00 0.00 0.00 78 1015.6
20260508214604 56 236 5.0 8.0 0.00 0.00 0.00 78 1015.5
20260508214503 56 236 5.0 8.0 0.00 0.00 0.00 78 1015.6
20260508214404 56 237 5.0 8.0 0.00 0.00 0.00 77 1015.6
20260508214303 56 237 4.0 8.0 0.00 0.00 0.00 78 1015.5
20260508214207 56 238 5.0 7.0 0.00 0.00 0.00 77 1015.5
20260508214005 56 237 5.0 8.0 0.00 0.00 0.00 77 1015.5
20260508213904 56 236 5.0 8.0 0.00 0.00 0.00 77 1015.4
20260508213803 56 234 5.0 8.0 0.00 0.00 0.00 77 1015.5
20260508213703 56 231 5.0 8.0 0.00 0.00 0.00 77 1015.5
20260508213604 56 228 5.0 8.0 0.00 0.00 0.00 77 1015.4
20260508213508 56 226 5.0 8.0 0.00 0.00 0.00 77 1015.3
20260508213404 56 223 5.0 8.0 0.00 0.00 0.00 77 1015.4
20260508213304 56 221 5.0 8.0 0.00 0.00 0.00 77 1015.4
20260508213203 56 219 5.0 8.0 0.00 0.00 0.00 77 1015.3
20260508213104 56 217 5.0 8.0 0.00 0.00 0.00 76 1015.3
20260508212904 56 217 5.0 8.0 0.00 0.00 0.00 77 1015.3
20260508212808 56 218 5.0 8.0 0.00 0.00 0.00 77 1015.4
20260508212703 56 220 5.0 8.0 0.00 0.00 0.00 77 1015.3
20260508212604 56 222 5.0 8.0 0.00 0.00 0.00 76 1015.3
20260508212504 56 224 5.0 8.0 0.00 0.00 0.00 76 1015.3
20260508212404 56 225 5.0 8.0 0.00 0.00 0.00 76 1015.3
20260508212306 56 226 5.0 7.0 0.00 0.00 0.00 76 1015.3
20260508212204 56 227 5.0 8.0 0.00 0.00 0.00 76 1015.3
20260508212107 56 227 5.0 8.0 0.00 0.00 0.00 76 1015.2
20260508212004 57 227 5.0 8.0 0.00 0.00 0.00 76 1015.2
20260508211904 56 226 5.0 8.0 0.00 0.00 0.00 76 1015.1
20260508211804 57 225 5.0 8.0 0.00 0.00 0.00 76 1015.1
20260508211504 57 220 5.0 8.0 0.00 0.00 0.00 76 1015.2
20260508211407 57 220 5.0 8.0 0.00 0.00 0.00 76 1015.2
20260508211303 57 220 4.0 8.0 0.00 0.00 0.00 76 1015.2
20260508211203 57 221 4.0 7.0 0.00 0.00 0.00 76 1015.1
20260508211104 57 222 4.0 7.0 0.00 0.00 0.00 76 1015.3
20260508211004 57 224 4.0 7.0 0.00 0.00 0.00 76 1015.2
20260508210904 57 225 4.0 7.0 0.00 0.00 0.00 76 1015.2
20260508210708 57 225 4.0 8.0 0.00 0.00 0.00 76 1015.2
20260508210604 57 224 4.0 8.0 0.00 0.00 0.00 76 1015.2
20260508210504 57 225 4.0 8.0 0.00 0.00 0.00 76 1015.2
20260508210405 57 226 5.0 8.0 0.00 0.00 0.00 76 1015.2
20260508210305 57 225 5.0 8.0 0.00 0.00 0.00 76 1015.2
20260508210203 57 224 5.0 8.0 0.00 0.00 0.00 76 1015.1
20260508210104 57 223 5.0 8.0 0.00 0.00 0.00 76 1015.2
20260508210009 57 223 5.0 8.0 0.00 0.00 0.00 76 1015.2
20260508205904 57 223 5.0 8.0 0.00 0.00 0.00 76 1015.1
20260508205804 57 221 5.0 8.0 0.00 0.00 0.00 76 1015.2
20260508205703 57 220 5.0 8.0 0.00 0.00 0.00 76 1015.2
20260508205604 57 219 6.0 9.0 0.00 0.00 0.00 76 1015.1
20260508205504 57 217 6.0 9.0 0.00 0.00 0.00 76 1015.2
20260508205403 57 216 6.0 9.0 0.00 0.00 0.00 76 1015.1
20260508205307 57 214 6.0 9.0 0.00 0.00 0.00 76 1015.1
20260508205204 57 214 5.0 9.0 0.00 0.00 0.00 76 1015.1
20260508205004 57 212 5.0 9.0 0.00 0.00 0.00 76 1015.1
20260508204704 57 214 5.0 9.0 0.00 0.00 0.00 76 1015.1
20260508204607 57 216 5.0 8.0 0.00 0.00 0.00 76 1015.1
20260508204504 57 219 5.0 8.0 0.00 0.00 0.00 76 1015.2
20260508204403 57 220 5.0 8.0 0.00 0.00 0.00 76 1015.2
20260508204303 57 222 5.0 8.0 0.00 0.00 0.00 76 1015.2
20260508204204 57 224 5.0 8.0 0.00 0.00 0.00 76 1015.2
20260508203907 57 227 5.0 7.0 0.00 0.00 0.00 76 1015.1
20260508203805 57 229 5.0 7.0 0.00 0.00 0.00 75 1015.0
20260508203704 57 230 5.0 7.0 0.00 0.00 0.00 75 1015.0
20260508203604 57 231 5.0 8.0 0.00 0.00 0.00 75 1015.0
20260508203504 57 231 5.0 8.0 0.00 0.00 0.00 75 1015.0
20260508203403 57 232 5.0 8.0 0.00 0.00 0.00 75 1015.0
20260508203304 57 231 5.0 8.0 0.00 0.00 0.00 75 1015.0
20260508203209 57 233 5.0 8.0 0.00 0.00 0.00 75 1015.1
20260508203104 57 236 5.0 8.0 0.00 0.00 0.00 75 1015.0
20260508203005 57 239 5.0 8.0 0.00 0.00 0.00 75 1015.0
20260508202905 57 241 5.0 8.0 0.00 0.00 0.00 75 1015.0
20260508202804 57 244 5.0 8.0 0.00 0.00 0.00 75 1015.0
20260508202704 57 248 5.0 8.0 0.00 0.00 0.00 75 1014.9
20260508202603 57 252 4.0 8.0 0.00 0.00 0.00 75 1015.0
20260508202509 57 260 4.0 8.0 0.00 0.00 0.00 75 1014.9
20260508202403 58 266 3.0 8.0 0.00 0.00 0.00 75 1015.0
20260508202306 58 268 3.0 7.0 0.00 0.00 0.00 75 1015.0
20260508202203 58 269 3.0 7.0 0.00 0.00 0.00 75 1014.9
20260508202105 58 265 3.0 8.0 0.00 0.00 0.00 75 1014.9
20260508202003 58 261 3.0 8.0 0.00 0.00 0.00 75 1014.9
20260508201806 58 249 4.0 8.0 0.00 0.00 0.00 75 1015.0
20260508201604 58 237 4.0 9.0 0.00 0.00 0.00 75 1014.9
20260508201504 58 233 5.0 9.0 0.00 0.00 0.00 75 1014.9
20260508201304 58 230 6.0 9.0 0.00 0.00 0.00 74 1014.9
20260508201107 58 227 6.0 9.0 0.00 0.00 0.00 74 1014.9
20260508200903 58 224 5.0 9.0 0.00 0.00 0.00 74 1014.9
20260508200804 58 224 6.0 9.0 0.00 0.00 0.00 73 1014.9
20260508200704 58 222 5.0 9.0 0.00 0.00 0.00 73 1014.9
20260508200603 58 222 5.0 9.0 0.00 0.00 0.00 73 1014.9
20260508200504 58 222 5.0 9.0 0.00 0.00 0.00 73 1014.8
20260508200304 58 221 5.0 7.0 0.00 0.00 0.00 73 1014.8
20260508200205 58 220 5.0 7.0 0.00 0.00 0.00 73 1014.8
20260508200114 58 220 5.0 7.0 0.00 0.00 0.00 73 1014.8
20260508200005 58 222 5.0 7.0 0.00 0.00 0.00 73 1014.9
20260508195905 58 223 5.0 7.0 0.00 0.00 0.00 73 1014.8
20260508195803 58 216 5.0 7.0 0.00 0.00 0.00 73 1014.7
20260508195704 58 226 5.0 7.0 0.00 0.00 0.00 74 1014.7
20260508195504 58 225 6.0 7.0 0.00 0.00 0.00 74 1014.7
20260508195404 58 226 6.0 7.0 0.00 0.00 0.00 74 1014.7
20260508194903 58 224 6.0 9.0 0.00 0.00 0.00 74 1014.7
20260508194803 58 225 5.0 9.0 0.00 0.00 0.00 74 1014.7
20260508194603 58 227 5.0 9.0 0.00 0.00 0.00 73 1014.6
20260508194504 58 227 4.0 9.0 0.00 0.00 0.00 73 1014.7
20260508194404 58 227 4.0 9.0 0.00 0.00 0.00 73 1014.7
20260508194304 58 228 4.0 7.0 0.00 0.00 0.00 73 1014.7
20260508194203 58 230 3.0 7.0 0.00 0.00 0.00 73 1014.6
20260508194103 59 232 3.0 7.0 0.00 0.00 0.00 73 1014.7
20260508194004 59 234 3.0 6.0 0.00 0.00 0.00 73 1014.6
20260508193903 59 236 2.0 6.0 0.00 0.00 0.00 72 1014.6
20260508193804 59 241 2.0 5.0 0.00 0.00 0.00 72 1014.7
20260508193712 59 246 2.0 5.0 0.00 0.00 0.00 72 1014.6
20260508193603 59 251 2.0 4.0 0.00 0.00 0.00 72 1014.6
20260508193503 59 253 2.0 4.0 0.00 0.00 0.00 72 1014.5
20260508193403 59 257 2.0 5.0 0.00 0.00 0.00 72 1014.5
20260508193303 59 254 2.0 6.0 0.00 0.00 0.00 72 1014.5
20260508193104 59 254 3.0 6.0 0.00 0.00 0.00 72 1014.5
20260508193003 59 255 2.0 6.0 0.00 0.00 0.00 72 1014.5
20260508192904 59 254 3.0 6.0 0.00 0.00 0.00 72 1014.5
20260508192804 59 250 3.0 6.0 0.00 0.00 0.00 72 1014.4
20260508192711 59 249 3.0 6.0 0.00 0.00 0.00 72 1014.4
20260508192603 59 249 3.0 6.0 0.00 0.00 0.00 72 1014.5
20260508192504 59 250 3.0 6.0 0.00 0.00 0.00 72 1014.4
20260508192306 59 251 3.0 6.0 0.00 0.00 0.00 72 1014.3
20260508192204 59 252 3.0 6.0 0.00 0.00 0.00 72 1014.4
20260508192104 59 253 3.0 6.0 0.00 0.00 0.00 72 1014.4
20260508191903 60 247 3.0 6.0 0.00 0.00 0.00 72 1014.3
20260508191711 60 242 3.0 6.0 0.00 0.00 0.00 71 1014.2
20260508191604 60 236 3.0 7.0 0.00 0.00 0.00 71 1014.2
20260508191504 60 232 3.0 7.0 0.00 0.00 0.00 71 1014.1
20260508191403 60 227 3.0 7.0 0.00 0.00 0.00 71 1014.1
20260508191304 60 225 3.0 7.0 0.00 0.00 0.00 71 1014.1
20260508191204 60 223 3.0 7.0 0.00 0.00 0.00 71 1014.1
20260508191104 60 221 3.0 7.0 0.00 0.00 0.00 71 1014.1
20260508191003 60 221 3.0 7.0 0.00 0.00 0.00 71 1014.1
20260508190706 60 218 4.0 7.0 0.00 0.00 0.00 71 1014.0
20260508190416 60 218 4.0 7.0 0.00 0.00 0.00 71 1014.0
20260508190306 60 219 4.0 7.0 0.00 0.00 0.00 71 1013.9
20260508190205 60 219 4.0 7.0 0.00 0.00 0.00 71 1013.9
20260508190006 60 220 3.0 7.0 0.00 0.00 0.00 71 1013.9
20260508185906 60 220 3.0 6.0 0.00 0.00 0.00 71 1013.8
20260508185806 60 221 3.0 6.0 0.00 0.00 0.00 71 1013.8
20260508185707 61 222 3.0 6.0 0.00 0.00 0.00 70 1013.7
20260508185607 61 223 3.0 6.0 0.00 0.00 0.00 71 1013.7
20260508185506 61 221 3.0 7.0 0.00 0.00 0.00 71 1013.7
20260508185416 61 220 3.0 7.0 0.00 0.00 0.00 70 1013.7
20260508185307 61 217 4.0 7.0 0.00 0.00 0.00 70 1013.7
20260508185205 61 216 4.0 7.0 0.00 0.00 0.00 70 1013.8
20260508185106 61 214 4.0 7.0 0.00 0.00 0.00 70 1013.7
20260508185007 61 213 4.0 7.0 0.00 0.00 0.00 70 1013.6
20260508184906 61 212 4.0 7.0 0.00 0.00 0.00 70 1013.6
20260508184805 61 211 5.0 7.0 0.00 0.00 0.00 70 1013.7
20260508184707 61 210 5.0 7.0 0.00 0.00 0.00 70 1013.6
20260508184605 61 209 5.0 7.0 0.00 0.00 0.00 70 1013.6
20260508184506 61 208 5.0 7.0 0.00 0.00 0.00 69 1013.7
20260508184416 61 209 4.0 7.0 0.00 0.00 0.00 69 1013.7
20260508184306 61 210 4.0 7.0 0.00 0.00 0.00 69 1013.6
20260508184206 61 211 3.0 7.0 0.00 0.00 0.00 69 1013.6
20260508184006 61 218 3.0 7.0 0.00 0.00 0.00 69 1013.6
20260508183906 62 224 2.0 6.0 0.00 0.00 0.00 69 1013.6
20260508183806 62 234 2.0 5.0 0.00 0.00 0.00 68 1013.6
20260508183705 62 244 2.0 5.0 0.00 0.00 0.00 68 1013.6
20260508183607 62 253 2.0 4.0 0.00 0.00 0.00 68 1013.6
20260508183414 62 265 2.0 4.0 0.00 0.00 0.00 68 1013.6
20260508183305 62 267 2.0 4.0 0.00 0.00 0.00 68 1013.4
20260508183206 62 269 2.0 4.0 0.00 0.00 0.00 68 1013.5
20260508183106 62 273 2.0 4.0 0.00 0.00 0.00 68 1013.6
20260508183007 62 277 2.0 4.0 0.00 0.00 0.00 67 1013.5
20260508182906 62 279 2.0 4.0 0.00 0.00 0.00 67 1013.6
20260508182706 63 276 1.0 4.0 0.00 0.00 0.00 67 1013.4
20260508182605 63 278 1.0 4.0 0.00 0.00 0.00 67 1013.4
20260508182506 63 279 1.0 3.0 0.00 0.00 0.00 67 1013.4
20260508182413 63 275 1.0 3.0 0.00 0.00 0.00 67 1013.4
20260508182307 63 274 1.0 2.0 0.00 0.00 0.00 67 1013.4
20260508182205 63 263 1.0 2.0 0.00 0.00 0.00 67 1013.4
20260508182106 63 223 1.0 3.0 0.00 0.00 0.00 66 1013.4
20260508182006 63 199 1.0 3.0 0.00 0.00 0.00 66 1013.5
20260508181907 63 185 1.0 3.0 0.00 0.00 0.00 66 1013.4
20260508181806 63 183 1.0 3.0 0.00 0.00 0.00 66 1013.4
20260508181707 63 185 1.0 3.0 0.00 0.00 0.00 67 1013.4
20260508181606 63 188 2.0 4.0 0.00 0.00 0.00 66 1013.4
20260508181507 63 192 2.0 5.0 0.00 0.00 0.00 66 1013.4
20260508181306 63 196 2.0 5.0 0.00 0.00 0.00 65 1013.3
20260508181205 63 198 3.0 5.0 0.00 0.00 0.00 65 1013.2
20260508181106 63 200 3.0 5.0 0.00 0.00 0.00 65 1013.3
20260508181005 63 202 3.0 5.0 0.00 0.00 0.00 65 1013.3
20260508180905 63 203 3.0 5.0 0.00 0.00 0.00 65 1013.3
20260508180706 63 204 3.0 5.0 0.00 0.00 0.00 65 1013.4
20260508180606 63 205 3.0 5.0 0.00 0.00 0.00 65 1013.3
20260508180413 63 204 3.0 5.0 0.00 0.00 0.00 64 1013.3
20260508180306 63 203 3.0 5.0 0.00 0.00 0.00 64 1013.4
20260508180206 63 202 3.0 5.0 0.00 0.00 0.00 65 1013.3
20260508180106 63 202 3.0 5.0 0.00 0.00 0.00 65 1013.3
20260508180006 63 202 3.0 5.0 0.00 0.00 0.00 65 1013.3
20260508175805 63 203 3.0 5.0 0.00 0.00 0.00 65 1013.3
20260508175706 63 204 3.0 5.0 0.00 0.00 0.00 65 1013.2
20260508175606 64 205 3.0 5.0 0.00 0.00 0.00 65 1013.2
20260508175414 64 208 3.0 5.0 0.00 0.00 0.00 65 1013.1
20260508175207 64 210 3.0 5.0 0.00 0.00 0.00 65 1013.2
20260508175106 64 210 3.0 5.0 0.00 0.00 0.00 64 1013.2
20260508175006 64 211 4.0 5.0 0.00 0.00 0.00 64 1013.2
20260508174806 64 212 3.0 5.0 0.00 0.00 0.00 64 1013.1
20260508174707 64 212 3.0 5.0 0.00 0.00 0.00 63 1013.2
20260508174507 64 212 2.0 5.0 0.00 0.00 0.00 64 1013.2
20260508174306 64 213 2.0 5.0 0.00 0.00 0.00 63 1013.2
20260508174106 64 217 1.0 5.0 0.00 0.00 0.00 63 1013.1
20260508174006 65 222 1.0 5.0 0.00 0.00 0.00 63 1013.1
20260508173906 65 240 0.0 3.0 0.00 0.00 0.00 63 1013.0
20260508173805 65 246 0.0 2.0 0.00 0.00 0.00 64 1013.1
20260508173705 65 246 0.0 1.0 0.00 0.00 0.00 64 1013.1
20260508173506 65 246 0.0 1.0 0.00 0.00 0.00 64 1013.1
20260508173413 65 246 0.0 1.0 0.00 0.00 0.00 64 1013.1
20260508173205 65 253 0.0 2.0 0.00 0.00 0.00 64 1013.1
20260508173006 65 257 0.0 3.0 0.00 0.00 0.00 64 1013.0
20260508172807 65 259 1.0 3.0 0.00 0.00 0.00 64 1013.0
20260508172706 65 261 1.0 3.0 0.00 0.00 0.00 64 1013.1
20260508172605 65 267 1.0 4.0 0.00 0.00 0.00 63 1013.0
20260508172506 65 271 1.0 4.0 0.00 0.00 0.00 63 1013.1
20260508172414 65 276 1.0 4.0 0.00 0.00 0.00 63 1013.0
20260508172307 65 283 1.0 4.0 0.00 0.00 0.00 63 1013.1
20260508172206 65 287 1.0 4.0 0.00 0.00 0.00 63 1013.0
20260508172007 65 293 1.0 4.0 0.00 0.00 0.00 62 1013.1
20260508171906 65 299 1.0 4.0 0.00 0.00 0.00 62 1013.0
20260508171806 65 303 1.0 4.0 0.00 0.00 0.00 62 1013.1
20260508171706 65 307 2.0 4.0 0.00 0.00 0.00 62 1013.1
20260508171613 65 312 1.0 4.0 0.00 0.00 0.00 62 1013.1
20260508171505 65 315 1.0 4.0 0.00 0.00 0.00 62 1013.0
20260508171413 65 317 1.0 4.0 0.00 0.00 0.00 62 1013.1
20260508171205 65 324 1.0 3.0 0.00 0.00 0.00 61 1013.0
20260508171106 65 327 1.0 3.0 0.00 0.00 0.00 61 1013.1
20260508171006 65 330 1.0 3.0 0.00 0.00 0.00 62 1013.1
20260508170906 65 330 1.0 3.0 0.00 0.00 0.00 62 1013.1
20260508170806 65 331 1.0 3.0 0.00 0.00 0.00 62 1013.0
20260508170706 65 331 1.0 3.0 0.00 0.00 0.00 62 1013.1
20260508170606 65 331 1.0 3.0 0.00 0.00 0.00 62 1013.1
20260508170413 65 332 1.0 3.0 0.00 0.00 0.00 61 1013.1
20260508170306 65 333 1.0 3.0 0.00 0.00 0.00 61 1013.0
20260508170206 65 335 1.0 3.0 0.00 0.00 0.00 60 1013.0
20260508170105 65 342 1.0 3.0 0.00 0.00 0.00 60 1013.0
20260508170006 66 345 1.0 3.0 0.00 0.00 0.00 60 1012.9
20260508165706 66 29 1.0 3.0 0.00 0.00 0.00 58 1013.0
20260508165606 66 42 1.0 3.0 0.00 0.00 0.00 58 1012.9
20260508165506 66 54 1.0 3.0 0.00 0.00 0.00 58 1012.9
20260508165307 66 78 1.0 4.0 0.00 0.00 0.00 58 1012.8
20260508165206 66 85 1.0 4.0 0.00 0.00 0.00 59 1012.9
20260508165105 66 91 1.0 4.0 0.00 0.00 0.00 59 1012.9
20260508165006 66 91 2.0 4.0 0.00 0.00 0.00 59 1012.9
20260508164906 66 95 2.0 4.0 0.00 0.00 0.00 59 1012.8
20260508164806 66 101 2.0 5.0 0.00 0.00 0.00 59 1012.8
20260508164607 66 103 2.0 6.0 0.00 0.00 0.00 59 1012.9
20260508164415 66 100 3.0 7.0 0.00 0.00 0.00 59 1012.8
20260508164305 66 103 3.0 7.0 0.00 0.00 0.00 59 1012.8
20260508164206 66 105 3.0 7.0 0.00 0.00 0.00 59 1012.8
20260508164106 66 103 3.0 7.0 0.00 0.00 0.00 59 1012.8
20260508164006 66 104 3.0 7.0 0.00 0.00 0.00 59 1012.8
20260508163906 66 103 3.0 7.0 0.00 0.00 0.00 59 1012.9
20260508163806 66 96 3.0 7.0 0.00 0.00 0.00 59 1012.8
20260508163706 67 95 3.0 7.0 0.00 0.00 0.00 59 1012.7
20260508163606 67 90 3.0 7.0 0.00 0.00 0.00 59 1012.7
20260508163506 67 85 3.0 6.0 0.00 0.00 0.00 60 1012.8
20260508163306 67 79 3.0 8.0 0.00 0.00 0.00 60 1012.7
20260508163206 67 73 3.0 8.0 0.00 0.00 0.00 60 1012.7
20260508163105 67 75 3.0 8.0 0.00 0.00 0.00 60 1012.8
20260508163007 67 73 4.0 8.0 0.00 0.00 0.00 60 1012.8
20260508162906 67 72 4.0 8.0 0.00 0.00 0.00 61 1012.7
20260508162806 67 76 4.0 8.0 0.00 0.00 0.00 61 1012.8
20260508162706 67 77 4.0 8.0 0.00 0.00 0.00 60 1012.7
20260508162605 67 80 5.0 8.0 0.00 0.00 0.00 60 1012.8
20260508162506 67 81 5.0 8.0 0.00 0.00 0.00 59 1012.7
20260508162414 67 81 5.0 8.0 0.00 0.00 0.00 58 1012.8
20260508162206 67 78 4.0 8.0 0.00 0.00 0.00 58 1012.7
20260508162106 67 78 4.0 8.0 0.00 0.00 0.00 58 1012.8
20260508162006 67 78 3.0 8.0 0.00 0.00 0.00 58 1012.8
20260508161906 67 79 3.0 8.0 0.00 0.00 0.00 58 1012.7
20260508161813 67 78 3.0 8.0 0.00 0.00 0.00 57 1012.7
20260508161706 68 77 3.0 8.0 0.00 0.00 0.00 57 1012.6
20260508161605 68 75 2.0 8.0 0.00 0.00 0.00 57 1012.7
20260508161506 68 76 2.0 7.0 0.00 0.00 0.00 58 1012.7
20260508161307 68 78 2.0 4.0 0.00 0.00 0.00 59 1012.7
20260508161205 68 80 2.0 4.0 0.00 0.00 0.00 59 1012.6
20260508161007 68 82 2.0 4.0 0.00 0.00 0.00 59 1012.7
20260508160906 68 87 2.0 4.0 0.00 0.00 0.00 59 1012.7
20260508160806 68 88 2.0 4.0 0.00 0.00 0.00 59 1012.7
20260508160706 68 114 2.0 4.0 0.00 0.00 0.00 59 1012.8
20260508160606 68 199 2.0 5.0 0.00 0.00 0.00 59 1012.7
20260508160506 68 217 2.0 5.0 0.00 0.00 0.00 58 1012.8
20260508160205 68 225 3.0 9.0 0.00 0.00 0.00 56 1012.8
20260508155806 68 209 4.0 9.0 0.00 0.00 0.00 52 1012.8
20260508155707 68 202 4.0 9.0 0.00 0.00 0.00 52 1012.7
20260508155606 68 199 4.0 9.0 0.00 0.00 0.00 52 1012.7
20260508155506 68 199 4.0 9.0 0.00 0.00 0.00 51 1012.7
20260508155413 68 194 4.0 8.0 0.00 0.00 0.00 52 1012.7
20260508155306 68 190 4.0 8.0 0.00 0.00 0.00 53 1012.8
20260508155206 68 189 4.0 8.0 0.00 0.00 0.00 53 1012.9
20260508155105 68 190 4.0 8.0 0.00 0.00 0.00 54 1012.8
20260508155007 67 188 5.0 8.0 0.00 0.00 0.00 54 1012.8
20260508154906 67 189 5.0 8.0 0.00 0.00 0.00 53 1012.9
20260508154705 67 196 5.0 7.0 0.00 0.00 0.00 53 1012.9
20260508154606 67 193 5.0 10.0 0.00 0.00 0.00 53 1012.9
20260508154506 68 191 5.0 10.0 0.00 0.00 0.00 53 1012.8
20260508154413 68 190 5.0 10.0 0.00 0.00 0.00 52 1012.8
20260508154306 68 189 5.0 10.0 0.00 0.00 0.00 52 1012.9
20260508154206 68 189 4.0 10.0 0.00 0.00 0.00 52 1012.9
20260508154107 68 183 4.0 10.0 0.00 0.00 0.00 53 1012.9
20260508154007 68 191 4.0 10.0 0.00 0.00 0.00 53 1012.9
20260508153906 68 198 5.0 10.0 0.00 0.00 0.00 52 1012.9
20260508153806 68 196 5.0 10.0 0.00 0.00 0.00 52 1012.8
20260508153705 68 193 5.0 11.0 0.00 0.00 0.00 51 1012.9
20260508153606 69 191 5.0 13.0 0.00 0.00 0.00 52 1012.8
20260508153505 69 189 5.0 13.0 0.00 0.00 0.00 53 1012.8
20260508153412 69 190 6.0 13.0 0.00 0.00 0.00 53 1012.8
20260508153305 68 190 6.0 13.0 0.00 0.00 0.00 53 1012.9
20260508153206 68 187 6.0 13.0 0.00 0.00 0.00 53 1012.7
20260508153105 68 190 6.0 13.0 0.00 0.00 0.00 52 1012.8
20260508153006 68 187 6.0 13.0 0.00 0.00 0.00 52 1012.8
20260508152906 68 182 6.0 13.0 0.00 0.00 0.00 53 1012.8
20260508152806 68 186 6.0 13.0 0.00 0.00 0.00 52 1012.8
20260508152705 68 188 6.0 13.0 0.00 0.00 0.00 53 1012.9
20260508152606 68 190 6.0 13.0 0.00 0.00 0.00 54 1012.9
20260508152414 68 195 6.0 13.0 0.00 0.00 0.00 55 1012.8
20260508152306 68 196 6.0 13.0 0.00 0.00 0.00 56 1012.8
20260508152206 68 198 6.0 13.0 0.00 0.00 0.00 56 1012.9
20260508152006 68 196 5.0 13.0 0.00 0.00 0.00 54 1012.8
20260508151806 68 192 5.0 11.0 0.00 0.00 0.00 55 1012.8
20260508151707 68 190 5.0 12.0 0.00 0.00 0.00 53 1012.7
20260508151605 69 190 5.0 12.0 0.00 0.00 0.00 54 1012.7
20260508151506 69 192 5.0 12.0 0.00 0.00 0.00 54 1012.7
20260508151415 69 191 5.0 12.0 0.00 0.00 0.00 55 1012.7
20260508151306 68 189 6.0 12.0 0.00 0.00 0.00 55 1012.8
20260508151205 68 185 6.0 12.0 0.00 0.00 0.00 56 1012.7
20260508151107 68 182 7.0 12.0 0.00 0.00 0.00 55 1012.9
20260508150906 68 179 8.0 12.0 0.00 0.00 0.00 55 1012.9
20260508150805 68 178 8.0 13.0 0.00 0.00 0.00 56 1012.8
20260508150711 68 174 8.0 15.0 0.00 0.00 0.00 56 1012.9
20260508150606 68 176 8.0 15.0 0.00 0.00 0.00 56 1012.8
20260508150405 67 174 9.0 15.0 0.00 0.00 0.00 58 1013.0
20260508150305 67 176 9.0 15.0 0.00 0.00 0.00 58 1013.0
20260508150205 67 178 9.0 15.0 0.00 0.00 0.00 57 1012.9
20260508150105 67 182 9.0 15.0 0.00 0.00 0.00 58 1013.0
20260508150006 67 182 9.0 15.0 0.00 0.00 0.00 58 1012.9
20260508145906 67 183 9.0 15.0 0.00 0.00 0.00 58 1012.9
20260508145806 67 186 8.0 15.0 0.00 0.00 0.00 58 1013.0
20260508145711 67 188 8.0 14.0 0.00 0.00 0.00 58 1012.9
20260508145606 67 188 8.0 14.0 0.00 0.00 0.00 59 1012.9
20260508145506 67 187 8.0 14.0 0.00 0.00 0.00 58 1012.9
20260508145405 67 185 7.0 13.0 0.00 0.00 0.00 58 1013.0
20260508145307 67 184 7.0 13.0 0.00 0.00 0.00 58 1012.9
20260508145206 67 187 7.0 13.0 0.00 0.00 0.00 58 1012.8
20260508145106 67 188 7.0 13.0 0.00 0.00 0.00 58 1012.9
20260508145007 67 192 7.0 13.0 0.00 0.00 0.00 58 1013.0
20260508144905 67 192 7.0 13.0 0.00 0.00 0.00 58 1012.9
20260508144806 67 192 7.0 13.0 0.00 0.00 0.00 57 1012.9
20260508144606 68 192 6.0 13.0 0.00 0.00 0.00 57 1013.0
20260508144506 68 195 6.0 13.0 0.00 0.00 0.00 57 1012.9
20260508144406 68 197 7.0 13.0 0.00 0.00 0.00 56 1013.0
20260508144306 68 196 6.0 13.0 0.00 0.00 0.00 55 1013.0
20260508144206 68 193 6.0 13.0 0.00 0.00 0.00 54 1012.9
20260508144105 68 192 6.0 13.0 0.00 0.00 0.00 54 1013.0
20260508144007 68 188 6.0 13.0 0.00 0.00 0.00 54 1013.0
20260508143713 68 187 7.0 14.0 0.00 0.00 0.00 54 1013.0
20260508143606 68 188 7.0 14.0 0.00 0.00 0.00 54 1013.0
20260508143506 68 186 7.0 14.0 0.00 0.00 0.00 54 1013.0
20260508143406 68 187 7.0 14.0 0.00 0.00 0.00 55 1013.1
20260508143305 68 192 7.0 14.0 0.00 0.00 0.00 55 1013.0
20260508143106 68 201 8.0 14.0 0.00 0.00 0.00 54 1013.0
20260508143006 68 205 8.0 14.0 0.00 0.00 0.00 54 1013.1
20260508142906 68 210 7.0 13.0 0.00 0.00 0.00 54 1013.1
20260508142806 69 214 7.0 13.0 0.00 0.00 0.00 54 1013.0
20260508142715 69 218 7.0 14.0 0.00 0.00 0.00 54 1013.0
20260508142605 68 222 8.0 14.0 0.00 0.00 0.00 54 1013.0
20260508142506 68 224 8.0 14.0 0.00 0.00 0.00 54 1013.1
20260508142405 68 225 8.0 14.0 0.00 0.00 0.00 54 1013.0
20260508142307 68 225 8.0 14.0 0.00 0.00 0.00 53 1013.0
20260508142206 68 226 7.0 14.0 0.00 0.00 0.00 55 1013.0
20260508142105 68 224 7.0 14.0 0.00 0.00 0.00 55 1013.0
20260508141806 68 219 7.0 14.0 0.00 0.00 0.00 54 1013.1
20260508141606 69 217 7.0 13.0 0.00 0.00 0.00 54 1013.0
20260508141512 69 215 7.0 13.0 0.00 0.00 0.00 54 1013.2
20260508141406 68 214 7.0 14.0 0.00 0.00 0.00 54 1013.0
20260508141106 68 215 8.0 14.0 0.00 0.00 0.00 54 1013.0
20260508141013 67 218 8.0 15.0 0.00 0.00 0.00 55 1013.1
20260508140807 67 219 9.0 15.0 0.00 0.00 0.00 55 1013.1
20260508140705 67 217 9.0 15.0 0.00 0.00 0.00 55 1013.1
20260508140606 67 218 9.0 15.0 0.00 0.00 0.00 55 1013.1
20260508140506 67 218 9.0 15.0 0.00 0.00 0.00 55 1013.2
20260508140407 67 218 8.0 15.0 0.00 0.00 0.00 55 1013.2
20260508140206 67 218 8.0 15.0 0.00 0.00 0.00 55 1013.2
20260508140105 67 217 8.0 15.0 0.00 0.00 0.00 55 1013.2
20260508135906 67 216 8.0 15.0 0.00 0.00 0.00 55 1013.2
20260508135806 67 215 8.0 15.0 0.00 0.00 0.00 55 1013.3
20260508135706 67 216 8.0 14.0 0.00 0.00 0.00 55 1013.2
20260508135605 67 216 8.0 14.0 0.00 0.00 0.00 55 1013.2
20260508135406 66 215 7.0 14.0 0.00 0.00 0.00 56 1013.4
20260508135311 66 213 7.0 14.0 0.00 0.00 0.00 56 1013.3
20260508135206 66 210 7.0 14.0 0.00 0.00 0.00 56 1013.4
20260508135107 66 208 6.0 14.0 0.00 0.00 0.00 57 1013.4
20260508135006 66 207 7.0 14.0 0.00 0.00 0.00 56 1013.4
20260508134905 66 203 6.0 13.0 0.00 0.00 0.00 58 1013.4
20260508134806 66 204 7.0 14.0 0.00 0.00 0.00 58 1013.4
20260508134706 66 202 7.0 14.0 0.00 0.00 0.00 58 1013.4
20260508134605 66 197 7.0 14.0 0.00 0.00 0.00 60 1013.5
20260508134506 66 197 7.0 14.0 0.00 0.00 0.00 60 1013.4
20260508134316 65 198 8.0 14.0 0.00 0.00 0.00 60 1013.5
20260508134206 65 197 8.0 14.0 0.00 0.00 0.00 60 1013.4
20260508134006 65 195 9.0 14.0 0.00 0.00 0.00 60 1013.5
20260508133905 65 196 9.0 14.0 0.00 0.00 0.00 60 1013.5
20260508133806 65 194 8.0 14.0 0.00 0.00 0.00 60 1013.5
20260508133707 65 195 9.0 14.0 0.00 0.00 0.00 60 1013.5
20260508133611 65 196 9.0 14.0 0.00 0.00 0.00 60 1013.6
20260508133406 65 197 9.0 14.0 0.00 0.00 0.00 60 1013.6
20260508133305 65 198 9.0 14.0 0.00 0.00 0.00 60 1013.6
20260508133206 65 199 9.0 14.0 0.00 0.00 0.00 60 1013.5
20260508133105 65 199 8.0 18.0 0.00 0.00 0.00 60 1013.5
20260508133006 65 200 9.0 18.0 0.00 0.00 0.00 60 1013.6
20260508132807 65 201 10.0 18.0 0.00 0.00 0.00 60 1013.6
20260508132705 65 200 10.0 18.0 0.00 0.00 0.00 59 1013.5
20260508132506 65 199 10.0 18.0 0.00 0.00 0.00 59 1013.6
20260508132406 65 198 10.0 18.0 0.00 0.00 0.00 59 1013.6
20260508132306 65 198 10.0 18.0 0.00 0.00 0.00 59 1013.6
20260508132206 65 198 10.0 18.0 0.00 0.00 0.00 59 1013.7
20260508132105 65 197 10.0 18.0 0.00 0.00 0.00 59 1013.5
20260508132007 65 196 10.0 18.0 0.00 0.00 0.00 59 1013.6
20260508131911 66 194 10.0 17.0 0.00 0.00 0.00 59 1013.6
20260508131806 66 194 10.0 17.0 0.00 0.00 0.00 59 1013.5
20260508131705 66 193 9.0 17.0 0.00 0.00 0.00 59 1013.6
20260508131506 66 189 8.0 15.0 0.00 0.00 0.00 60 1013.6
20260508131406 66 189 8.0 15.0 0.00 0.00 0.00 59 1013.6
20260508131306 66 189 8.0 15.0 0.00 0.00 0.00 60 1013.6
20260508131205 66 190 8.0 15.0 0.00 0.00 0.00 60 1013.6
20260508131105 66 193 8.0 15.0 0.00 0.00 0.00 60 1013.5
20260508130913 66 195 7.0 13.0 0.00 0.00 0.00 60 1013.5
20260508130807 67 195 7.0 15.0 0.00 0.00 0.00 60 1013.5
20260508130706 67 196 7.0 15.0 0.00 0.00 0.00 59 1013.5
20260508130605 67 197 7.0 15.0 0.00 0.00 0.00 59 1013.5
20260508130506 67 199 7.0 15.0 0.00 0.00 0.00 59 1013.5
20260508130413 67 198 7.0 15.0 0.00 0.00 0.00 59 1013.5
20260508130306 67 198 7.0 15.0 0.00 0.00 0.00 59 1013.3
20260508130208 67 196 7.0 15.0 0.00 0.00 0.00 58 1013.5
20260508130106 67 195 7.0 15.0 0.00 0.00 0.00 58 1013.4
20260508130006 67 195 7.0 15.0 0.00 0.00 0.00 57 1013.5
20260508125915 67 194 8.0 15.0 0.00 0.00 0.00 57 1013.5
20260508125805 67 194 8.0 15.0 0.00 0.00 0.00 57 1013.4
20260508125606 67 197 8.0 15.0 0.00 0.00 0.00 58 1013.5
20260508125505 67 199 8.0 15.0 0.00 0.00 0.00 58 1013.5
20260508125406 67 200 8.0 15.0 0.00 0.00 0.00 58 1013.6
20260508125306 67 199 9.0 15.0 0.00 0.00 0.00 57 1013.5
20260508125210 67 199 8.0 13.0 0.00 0.00 0.00 57 1013.6
20260508125006 67 199 8.0 15.0 0.00 0.00 0.00 57 1013.5
20260508124806 67 203 8.0 15.0 0.00 0.00 0.00 57 1013.6
20260508124607 67 203 8.0 15.0 0.00 0.00 0.00 59 1013.5
20260508124507 67 203 8.0 15.0 0.00 0.00 0.00 58 1013.5
20260508124306 67 202 8.0 15.0 0.00 0.00 0.00 59 1013.5
20260508124207 67 200 8.0 15.0 0.00 0.00 0.00 59 1013.5
20260508123915 67 196 7.0 14.0 0.00 0.00 0.00 59 1013.6
20260508123605 67 192 6.0 13.0 0.00 0.00 0.00 60 1013.5
20260508123506 67 189 6.0 13.0 0.00 0.00 0.00 59 1013.6
20260508123406 67 188 5.0 12.0 0.00 0.00 0.00 60 1013.5
20260508123307 67 189 5.0 11.0 0.00 0.00 0.00 60 1013.6
20260508123106 67 181 4.0 11.0 0.00 0.00 0.00 59 1013.7
20260508123006 67 181 4.0 11.0 0.00 0.00 0.00 59 1013.7